Wetterdaten: Samstag, 20.06.2009
Datum Zeit Temp. Innen Temp. Aussen UV X Diff Temp. Feuchte Inne Feuchte Auss Sonnenschein Luftdruck Regen ab 0,1 Wind Sonnenschein Windben
20.06.2009 00:00 21,9 C 12,6 C 0,0 UV-I 0,0 C 44 % 70 % 0 % 1022,1 hPa 0,0 l/m 0,0 km/h (0 Bft) 0 min 0,0 km/h (0 Bft)
20.06.2009 00:02 21,9 C 12,5 C 0,0 UV-I 0,0 C 44 % 70 % 0 % 1022,1 hPa 0,0 l/m 0,0 km/h (0 Bft) 0 min 0,0 km/h (0 Bft)
20.06.2009 00:04 21,8 C 12,5 C 0,0 UV-I 0,0 C 44 % 70 % 0 % 1022,1 hPa 0,0 l/m 0,0 km/h (0 Bft) 0 min 0,0 km/h (0 Bft)
20.06.2009 00:06 21,8 C 12,4 C 0,0 UV-I 0,0 C 45 % 71 % 0 % 1022,1 hPa 0,0 l/m 0,0 km/h (0 Bft) 0 min 0,0 km/h (0 Bft)
20.06.2009 00:08 21,8 C 12,4 C 0,0 UV-I 0,0 C 45 % 71 % 0 % 1022,1 hPa 0,0 l/m 0,0 km/h (0 Bft) 0 min 0,0 km/h (0 Bft)
20.06.2009 00:10 21,8 C 12,4 C 0,0 UV-I 0,0 C 44 % 71 % 0 % 1022,1 hPa 0,0 l/m 0,0 km/h (0 Bft) 0 min 0,0 km/h (0 Bft)
20.06.2009 00:12 21,7 C 12,4 C 0,0 UV-I 0,0 C 44 % 71 % 0 % 1022,1 hPa 0,0 l/m 0,0 km/h (0 Bft) 0 min 0,0 km/h (0 Bft)
20.06.2009 00:14 21,7 C 12,3 C 0,0 UV-I 0,0 C 44 % 71 % 0 % 1022,1 hPa 0,0 l/m 0,0 km/h (0 Bft) 0 min 0,0 km/h (0 Bft)
20.06.2009 00:16 21,7 C 12,2 C 0,0 UV-I 0,0 C 44 % 72 % 0 % 1022,1 hPa 0,0 l/m 0,0 km/h (0 Bft) 0 min 0,0 km/h (0 Bft)
20.06.2009 00:18 21,6 C 12,2 C 0,0 UV-I 0,0 C 44 % 72 % 0 % 1022,2 hPa 0,0 l/m 0,0 km/h (0 Bft) 0 min 0,0 km/h (0 Bft)
20.06.2009 00:20 21,6 C 12,3 C 0,0 UV-I 0,0 C 44 % 72 % 0 % 1022,2 hPa 0,0 l/m 0,0 km/h (0 Bft) 0 min 0,0 km/h (0 Bft)
20.06.2009 00:22 21,6 C 12,3 C 0,0 UV-I 0,0 C 44 % 72 % 0 % 1022,2 hPa 0,0 l/m 0,0 km/h (0 Bft) 0 min 0,0 km/h (0 Bft)
20.06.2009 00:24 21,6 C 12,2 C 0,0 UV-I 0,0 C 44 % 72 % 0 % 1022,2 hPa 0,0 l/m 0,0 km/h (0 Bft) 0 min 3,1 km/h (1 Bft)
20.06.2009 00:26 21,5 C 12,1 C 0,0 UV-I 0,0 C 44 % 72 % 0 % 1022,2 hPa 0,0 l/m 0,0 km/h (0 Bft) 0 min 0,0 km/h (0 Bft)
20.06.2009 00:28 21,5 C 12,1 C 0,0 UV-I 0,0 C 44 % 72 % 0 % 1022,2 hPa 0,0 l/m 0,0 km/h (0 Bft) 0 min 0,0 km/h (0 Bft)
20.06.2009 00:30 21,5 C 12,1 C 0,0 UV-I 0,0 C 44 % 72 % 0 % 1022,2 hPa 0,0 l/m 0,0 km/h (0 Bft) 0 min 0,0 km/h (0 Bft)
20.06.2009 00:32 21,4 C 12,1 C 0,0 UV-I 0,0 C 45 % 72 % 0 % 1022,2 hPa 0,0 l/m 0,0 km/h (0 Bft) 0 min 0,0 km/h (0 Bft)
20.06.2009 00:34 21,4 C 12,0 C 0,0 UV-I 0,0 C 45 % 72 % 0 % 1022,2 hPa 0,0 l/m 0,0 km/h (0 Bft) 0 min 0,0 km/h (0 Bft)
20.06.2009 00:36 21,4 C 12,0 C 0,0 UV-I 0,0 C 45 % 72 % 0 % 1022,2 hPa 0,0 l/m 0,0 km/h (0 Bft) 0 min 0,0 km/h (0 Bft)
20.06.2009 00:38 21,4 C 12,0 C 0,0 UV-I 0,0 C 45 % 72 % 0 % 1022,0 hPa 0,0 l/m 0,0 km/h (0 Bft) 0 min 0,0 km/h (0 Bft)
20.06.2009 00:40 21,2 C 12,1 C 0,0 UV-I 0,0 C 45 % 72 % 0 % 1022,0 hPa 0,0 l/m 0,0 km/h (0 Bft) 0 min 0,0 km/h (0 Bft)
20.06.2009 00:42 21,2 C 12,1 C 0,0 UV-I 0,0 C 45 % 72 % 0 % 1022,0 hPa 0,0 l/m 0,0 km/h (0 Bft) 0 min 0,0 km/h (0 Bft)
20.06.2009 00:44 21,2 C 12,0 C 0,0 UV-I 0,0 C 45 % 72 % 0 % 1022,0 hPa 0,0 l/m 0,0 km/h (0 Bft) 0 min 0,0 km/h (0 Bft)
20.06.2009 00:46 21,3 C 12,0 C 0,0 UV-I 0,0 C 45 % 72 % 0 % 1022,0 hPa 0,0 l/m 0,0 km/h (0 Bft) 0 min 0,0 km/h (0 Bft)
20.06.2009 00:48 21,2 C 12,0 C 0,0 UV-I 0,0 C 45 % 72 % 0 % 1022,0 hPa 0,0 l/m 0,0 km/h (0 Bft) 0 min 0,0 km/h (0 Bft)
20.06.2009 00:50 21,2 C 12,0 C 0,0 UV-I 0,0 C 45 % 72 % 0 % 1022,0 hPa 0,0 l/m 0,0 km/h (0 Bft) 0 min 0,0 km/h (0 Bft)
20.06.2009 00:52 21,2 C 12,0 C 0,0 UV-I 0,0 C 45 % 72 % 0 % 1022,0 hPa 0,0 l/m 0,0 km/h (0 Bft) 0 min 0,0 km/h (0 Bft)
20.06.2009 00:54 21,2 C 12,0 C 0,0 UV-I 0,0 C 45 % 72 % 0 % 1022,0 hPa 0,0 l/m 0,0 km/h (0 Bft) 0 min 0,0 km/h (0 Bft)
20.06.2009 00:56 21,2 C 12,0 C 0,0 UV-I 0,0 C 45 % 72 % 0 % 1022,0 hPa 0,0 l/m 0,0 km/h (0 Bft) 0 min 0,0 km/h (0 Bft)
20.06.2009 00:58 21,2 C 12,0 C 0,0 UV-I 0,0 C 45 % 72 % 0 % 1021,7 hPa 0,0 l/m 0,0 km/h (0 Bft) 0 min 0,0 km/h (0 Bft)
20.06.2009 01:00 21,1 C 12,0 C 0,0 UV-I 0,0 C 45 % 72 % 0 % 1021,7 hPa 0,0 l/m 0,0 km/h (0 Bft) 0 min 0,0 km/h (0 Bft)
20.06.2009 01:02 21,1 C 12,0 C 0,0 UV-I 0,0 C 45 % 73 % 0 % 1021,7 hPa 0,0 l/m 0,0 km/h (0 Bft) 0 min 0,0 km/h (0 Bft)
20.06.2009 01:04 21,1 C 12,0 C 0,0 UV-I 0,0 C 45 % 73 % 0 % 1021,7 hPa 0,0 l/m 0,0 km/h (0 Bft) 0 min 0,0 km/h (0 Bft)
20.06.2009 01:06 21,0 C 12,0 C 0,0 UV-I 0,0 C 45 % 73 % 0 % 1021,7 hPa 0,0 l/m 0,0 km/h (0 Bft) 0 min 0,0 km/h (0 Bft)
20.06.2009 01:08 21,0 C 11,9 C 0,0 UV-I 0,0 C 45 % 73 % 0 % 1021,7 hPa 0,0 l/m 0,0 km/h (0 Bft) 0 min 0,0 km/h (0 Bft)
20.06.2009 01:10 21,0 C 11,9 C 0,0 UV-I 0,0 C 45 % 73 % 0 % 1021,7 hPa 0,0 l/m 0,0 km/h (0 Bft) 0 min 0,0 km/h (0 Bft)
20.06.2009 01:12 21,0 C 11,9 C 0,0 UV-I 0,0 C 45 % 73 % 0 % 1021,7 hPa 0,0 l/m 0,0 km/h (0 Bft) 0 min 0,0 km/h (0 Bft)
20.06.2009 01:14 21,0 C 11,9 C 0,0 UV-I 0,0 C 45 % 74 % 0 % 1021,7 hPa 0,0 l/m 0,0 km/h (0 Bft) 0 min 0,0 km/h (0 Bft)
20.06.2009 01:16 20,9 C 11,9 C 0,0 UV-I 0,0 C 45 % 74 % 0 % 1021,7 hPa 0,0 l/m 0,0 km/h (0 Bft) 0 min 0,0 km/h (0 Bft)
20.06.2009 01:18 21,0 C 11,9 C 0,0 UV-I 0,0 C 45 % 74 % 0 % 1021,4 hPa 0,0 l/m 0,0 km/h (0 Bft) 0 min 0,0 km/h (0 Bft)
20.06.2009 01:20 20,9 C 11,9 C 0,0 UV-I 0,0 C 45 % 74 % 0 % 1021,4 hPa 0,0 l/m 0,0 km/h (0 Bft) 0 min 0,0 km/h (0 Bft)
20.06.2009 01:22 20,9 C 11,9 C 0,0 UV-I 0,0 C 46 % 74 % 0 % 1021,4 hPa 0,0 l/m 0,0 km/h (0 Bft) 0 min 0,0 km/h (0 Bft)
20.06.2009 01:24 20,9 C 11,8 C 0,0 UV-I 0,0 C 46 % 74 % 0 % 1021,4 hPa 0,0 l/m 0,0 km/h (0 Bft) 0 min 0,0 km/h (0 Bft)
20.06.2009 01:26 20,9 C 11,9 C 0,0 UV-I 0,0 C 46 % 74 % 0 % 1021,4 hPa 0,0 l/m 0,0 km/h (0 Bft) 0 min 0,0 km/h (0 Bft)
20.06.2009 01:28 20,8 C 11,9 C 0,0 UV-I 0,0 C 46 % 74 % 0 % 1021,4 hPa 0,0 l/m 0,0 km/h (0 Bft) 0 min 0,0 km/h (0 Bft)
20.06.2009 01:30 20,8 C 11,9 C 0,0 UV-I 0,0 C 46 % 74 % 0 % 1021,4 hPa 0,0 l/m 0,0 km/h (0 Bft) 0 min 2,9 km/h (1 Bft)
20.06.2009 01:32 20,8 C 11,9 C 0,0 UV-I 0,0 C 46 % 74 % 0 % 1021,4 hPa 0,0 l/m 0,0 km/h (0 Bft) 0 min 0,0 km/h (0 Bft)
20.06.2009 01:34 20,8 C 11,9 C 0,0 UV-I 0,0 C 46 % 74 % 0 % 1021,4 hPa 0,0 l/m 0,0 km/h (0 Bft) 0 min 0,0 km/h (0 Bft)
20.06.2009 01:36 20,8 C 11,8 C 0,0 UV-I 0,0 C 46 % 74 % 0 % 1021,4 hPa 0,0 l/m 0,0 km/h (0 Bft) 0 min 0,0 km/h (0 Bft)
20.06.2009 01:38 20,8 C 11,8 C 0,0 UV-I 0,0 C 46 % 74 % 0 % 1021,2 hPa 0,0 l/m 0,0 km/h (0 Bft) 0 min 0,0 km/h (0 Bft)
20.06.2009 01:40 20,8 C 11,9 C 0,0 UV-I 0,0 C 46 % 74 % 0 % 1021,2 hPa 0,0 l/m 0,0 km/h (0 Bft) 0 min 0,0 km/h (0 Bft)
20.06.2009 01:42 20,8 C 11,9 C 0,0 UV-I 0,0 C 46 % 74 % 0 % 1021,2 hPa 0,0 l/m 0,0 km/h (0 Bft) 0 min 0,0 km/h (0 Bft)
20.06.2009 01:44 20,8 C 11,9 C 0,0 UV-I 0,0 C 46 % 74 % 0 % 1021,2 hPa 0,0 l/m 0,0 km/h (0 Bft) 0 min 0,0 km/h (0 Bft)
20.06.2009 01:46 20,7 C 11,9 C 0,0 UV-I 0,0 C 46 % 74 % 0 % 1021,2 hPa 0,0 l/m 0,2 km/h (0 Bft) 0 min 3,6 km/h (1 Bft)
20.06.2009 01:48 20,7 C 11,9 C 0,0 UV-I 0,0 C 46 % 74 % 0 % 1021,2 hPa 0,0 l/m 0,2 km/h (0 Bft) 0 min 0,0 km/h (0 Bft)
20.06.2009 01:50 20,7 C 12,0 C 0,0 UV-I 0,0 C 46 % 74 % 0 % 1021,2 hPa 0,0 l/m 0,2 km/h (0 Bft) 0 min 0,0 km/h (0 Bft)
20.06.2009 01:52 20,7 C 12,0 C 0,0 UV-I 0,0 C 46 % 74 % 0 % 1021,2 hPa 0,0 l/m 0,2 km/h (0 Bft) 0 min 0,0 km/h (0 Bft)
20.06.2009 01:54 20,7 C 12,0 C 0,0 UV-I 0,0 C 46 % 74 % 0 % 1021,2 hPa 0,0 l/m 0,2 km/h (0 Bft) 0 min 3,6 km/h (1 Bft)
20.06.2009 01:56 20,7 C 12,0 C 0,0 UV-I 0,0 C 46 % 74 % 0 % 1021,2 hPa 0,0 l/m 0,2 km/h (0 Bft) 0 min 0,0 km/h (0 Bft)
20.06.2009 01:58 20,7 C 12,1 C 0,0 UV-I 0,0 C 46 % 74 % 0 % 1021,1 hPa 0,0 l/m 0,0 km/h (0 Bft) 0 min 0,0 km/h (0 Bft)
20.06.2009 02:00 20,6 C 12,0 C 0,0 UV-I 0,0 C 46 % 74 % 0 % 1021,1 hPa 0,0 l/m 0,0 km/h (0 Bft) 0 min 0,0 km/h (0 Bft)
20.06.2009 02:02 20,6 C 12,1 C 0,0 UV-I 0,0 C 46 % 74 % 0 % 1021,1 hPa 0,0 l/m 0,0 km/h (0 Bft) 0 min 0,0 km/h (0 Bft)
20.06.2009 02:04 20,6 C 12,1 C 0,0 UV-I 0,0 C 46 % 74 % 0 % 1021,1 hPa 0,0 l/m 0,0 km/h (0 Bft) 0 min 0,0 km/h (0 Bft)
20.06.2009 02:06 20,6 C 12,1 C 0,0 UV-I 0,0 C 46 % 74 % 0 % 1021,1 hPa 0,0 l/m 0,0 km/h (0 Bft) 0 min 0,0 km/h (0 Bft)
20.06.2009 02:08 20,6 C 12,0 C 0,0 UV-I 0,0 C 46 % 74 % 0 % 1021,1 hPa 0,0 l/m 0,0 km/h (0 Bft) 0 min 0,0 km/h (0 Bft)
20.06.2009 02:10 20,6 C 12,0 C 0,0 UV-I 0,0 C 46 % 74 % 0 % 1021,1 hPa 0,0 l/m 0,0 km/h (0 Bft) 0 min 0,0 km/h (0 Bft)
20.06.2009 02:12 20,6 C 12,0 C 0,0 UV-I 0,0 C 46 % 74 % 0 % 1021,1 hPa 0,0 l/m 0,0 km/h (0 Bft) 0 min 0,0 km/h (0 Bft)
20.06.2009 02:14 20,5 C 12,1 C 0,0 UV-I 0,0 C 46 % 74 % 0 % 1021,1 hPa 0,0 l/m 0,0 km/h (0 Bft) 0 min 0,0 km/h (0 Bft)
20.06.2009 02:16 20,5 C 12,1 C 0,0 UV-I 0,0 C 46 % 73 % 0 % 1021,1 hPa 0,0 l/m 0,0 km/h (0 Bft) 0 min 0,0 km/h (0 Bft)
20.06.2009 02:18 20,5 C 12,1 C 0,0 UV-I 0,0 C 46 % 73 % 0 % 1021,1 hPa 0,0 l/m 0,0 km/h (0 Bft) 0 min 0,0 km/h (0 Bft)
20.06.2009 02:20 20,5 C 12,1 C 0,0 UV-I 0,0 C 46 % 73 % 0 % 1021,1 hPa 0,0 l/m 0,2 km/h (0 Bft) 0 min 0,0 km/h (0 Bft)
20.06.2009 02:22 20,5 C 12,2 C 0,0 UV-I 0,0 C 46 % 73 % 0 % 1021,1 hPa 0,0 l/m 0,2 km/h (0 Bft) 0 min 0,0 km/h (0 Bft)
20.06.2009 02:24 20,5 C 12,3 C 0,0 UV-I 0,0 C 46 % 73 % 0 % 1021,1 hPa 0,0 l/m 0,2 km/h (0 Bft) 0 min 4,1 km/h (1 Bft)
20.06.2009 02:26 20,5 C 12,3 C 0,0 UV-I 0,0 C 46 % 73 % 0 % 1021,1 hPa 0,0 l/m 0,5 km/h (0 Bft) 0 min 0,0 km/h (0 Bft)
20.06.2009 02:28 20,5 C 12,2 C 0,0 UV-I 0,0 C 46 % 73 % 0 % 1021,1 hPa 0,0 l/m 0,5 km/h (0 Bft) 0 min 0,0 km/h (0 Bft)
20.06.2009 02:30 20,4 C 12,3 C 0,0 UV-I 0,0 C 46 % 73 % 0 % 1021,1 hPa 0,0 l/m 0,2 km/h (0 Bft) 0 min 0,0 km/h (0 Bft)
20.06.2009 02:32 20,5 C 12,3 C 0,0 UV-I 0,0 C 46 % 73 % 0 % 1021,1 hPa 0,0 l/m 0,2 km/h (0 Bft) 0 min 0,0 km/h (0 Bft)
20.06.2009 02:34 20,4 C 12,3 C 0,0 UV-I 0,0 C 46 % 73 % 0 % 1021,1 hPa 0,0 l/m 0,2 km/h (0 Bft) 0 min 0,0 km/h (0 Bft)
20.06.2009 02:36 20,4 C 12,3 C 0,0 UV-I 0,0 C 46 % 72 % 0 % 1021,1 hPa 0,0 l/m 0,0 km/h (0 Bft) 0 min 0,0 km/h (0 Bft)
20.06.2009 02:38 20,4 C 12,3 C 0,0 UV-I 0,0 C 46 % 72 % 0 % 1020,7 hPa 0,0 l/m 0,2 km/h (0 Bft) 0 min 0,0 km/h (0 Bft)
20.06.2009 02:40 20,4 C 12,3 C 0,0 UV-I 0,0 C 46 % 72 % 0 % 1020,7 hPa 0,0 l/m 0,2 km/h (0 Bft) 0 min 3,1 km/h (1 Bft)
20.06.2009 02:42 20,4 C 12,3 C 0,0 UV-I 0,0 C 46 % 72 % 0 % 1020,7 hPa 0,0 l/m 0,2 km/h (0 Bft) 0 min 0,0 km/h (0 Bft)
20.06.2009 02:44 20,4 C 12,3 C 0,0 UV-I 0,0 C 46 % 72 % 0 % 1020,7 hPa 0,0 l/m 0,2 km/h (0 Bft) 0 min 0,0 km/h (0 Bft)
20.06.2009 02:46 20,4 C 12,4 C 0,0 UV-I 0,0 C 46 % 72 % 0 % 1020,7 hPa 0,0 l/m 0,2 km/h (0 Bft) 0 min 0,0 km/h (0 Bft)
20.06.2009 02:48 20,4 C 12,3 C 0,0 UV-I 0,0 C 46 % 72 % 0 % 1020,7 hPa 0,0 l/m 0,2 km/h (0 Bft) 0 min 0,0 km/h (0 Bft)
20.06.2009 02:50 20,4 C 12,3 C 0,0 UV-I 0,0 C 46 % 72 % 0 % 1020,7 hPa 0,0 l/m 0,2 km/h (0 Bft) 0 min 0,0 km/h (0 Bft)
20.06.2009 02:52 20,4 C 12,3 C 0,0 UV-I 0,0 C 46 % 72 % 0 % 1020,7 hPa 0,0 l/m 0,0 km/h (0 Bft) 0 min 0,0 km/h (0 Bft)
20.06.2009 02:54 20,4 C 12,3 C 0,0 UV-I 0,0 C 47 % 72 % 0 % 1020,7 hPa 0,0 l/m 0,0 km/h (0 Bft) 0 min 4,6 km/h (1 Bft)
20.06.2009 02:56 20,4 C 12,3 C 0,0 UV-I 0,0 C 47 % 72 % 0 % 1020,7 hPa 0,0 l/m 0,0 km/h (0 Bft) 0 min 0,0 km/h (0 Bft)
20.06.2009 02:58 20,4 C 12,3 C 0,0 UV-I 0,0 C 47 % 72 % 0 % 1020,7 hPa 0,0 l/m 0,0 km/h (0 Bft) 0 min 0,0 km/h (0 Bft)
20.06.2009 03:00 20,2 C 12,3 C 0,0 UV-I 0,0 C 47 % 72 % 0 % 1020,7 hPa 0,0 l/m 0,0 km/h (0 Bft) 0 min 0,0 km/h (0 Bft)
20.06.2009 03:02 20,2 C 12,3 C 0,0 UV-I 0,0 C 47 % 72 % 0 % 1020,7 hPa 0,0 l/m 0,0 km/h (0 Bft) 0 min 0,0 km/h (0 Bft)
20.06.2009 03:04 20,4 C 12,3 C 0,0 UV-I 0,0 C 46 % 72 % 0 % 1020,7 hPa 0,0 l/m 0,0 km/h (0 Bft) 0 min 0,0 km/h (0 Bft)
20.06.2009 03:06 20,2 C 12,3 C 0,0 UV-I 0,0 C 47 % 72 % 0 % 1020,7 hPa 0,0 l/m 0,0 km/h (0 Bft) 0 min 0,0 km/h (0 Bft)
20.06.2009 03:08 20,2 C 12,3 C 0,0 UV-I 0,0 C 47 % 72 % 0 % 1020,7 hPa 0,0 l/m 0,0 km/h (0 Bft) 0 min 0,0 km/h (0 Bft)
20.06.2009 03:10 20,2 C 12,3 C 0,0 UV-I 0,0 C 47 % 72 % 0 % 1020,7 hPa 0,0 l/m 0,0 km/h (0 Bft) 0 min 0,0 km/h (0 Bft)
20.06.2009 03:12 20,2 C 12,3 C 0,0 UV-I 0,0 C 47 % 72 % 0 % 1020,7 hPa 0,0 l/m 0,0 km/h (0 Bft) 0 min 0,0 km/h (0 Bft)
20.06.2009 03:14 20,3 C 12,3 C 0,0 UV-I 0,0 C 47 % 72 % 0 % 1020,7 hPa 0,0 l/m 0,0 km/h (0 Bft) 0 min 0,0 km/h (0 Bft)
20.06.2009 03:16 20,3 C 12,3 C 0,0 UV-I 0,0 C 47 % 72 % 0 % 1020,7 hPa 0,0 l/m 0,0 km/h (0 Bft) 0 min 0,0 km/h (0 Bft)
20.06.2009 03:18 20,3 C 12,3 C 0,0 UV-I 0,0 C 47 % 72 % 0 % 1020,4 hPa 0,0 l/m 0,0 km/h (0 Bft) 0 min 0,0 km/h (0 Bft)
20.06.2009 03:20 20,3 C 12,2 C 0,0 UV-I 0,0 C 47 % 72 % 0 % 1020,4 hPa 0,0 l/m 0,2 km/h (0 Bft) 0 min 0,0 km/h (0 Bft)
20.06.2009 03:22 20,3 C 12,3 C 0,0 UV-I 0,0 C 47 % 72 % 0 % 1020,4 hPa 0,0 l/m 0,2 km/h (0 Bft) 0 min 0,0 km/h (0 Bft)
20.06.2009 03:24 20,3 C 12,3 C 0,0 UV-I 0,0 C 47 % 72 % 0 % 1020,4 hPa 0,0 l/m 0,2 km/h (0 Bft) 0 min 0,0 km/h (0 Bft)
20.06.2009 03:26 20,3 C 12,3 C 0,0 UV-I 0,0 C 47 % 72 % 0 % 1020,4 hPa 0,0 l/m 0,2 km/h (0 Bft) 0 min 0,0 km/h (0 Bft)
20.06.2009 03:28 20,3 C 12,3 C 0,0 UV-I 0,0 C 47 % 72 % 0 % 1020,4 hPa 0,0 l/m 0,5 km/h (0 Bft) 0 min 4,1 km/h (1 Bft)
20.06.2009 03:30 20,2 C 12,3 C 0,0 UV-I 0,0 C 47 % 72 % 0 % 1020,4 hPa 0,0 l/m 0,5 km/h (0 Bft) 0 min 0,0 km/h (0 Bft)
20.06.2009 03:32 20,2 C 12,3 C 0,0 UV-I 0,0 C 47 % 72 % 0 % 1020,4 hPa 0,0 l/m 0,5 km/h (0 Bft) 0 min 0,0 km/h (0 Bft)
20.06.2009 03:34 20,2 C 12,3 C 0,0 UV-I 0,0 C 47 % 72 % 0 % 1020,4 hPa 0,0 l/m 0,5 km/h (0 Bft) 0 min 0,0 km/h (0 Bft)
20.06.2009 03:36 20,2 C 12,3 C 0,0 UV-I 0,0 C 47 % 72 % 0 % 1020,4 hPa 0,0 l/m 0,5 km/h (0 Bft) 0 min 2,6 km/h (1 Bft)
20.06.2009 03:38 20,2 C 12,3 C 0,0 UV-I 0,0 C 47 % 72 % 0 % 1020,6 hPa 0,0 l/m 0,2 km/h (0 Bft) 0 min 0,0 km/h (0 Bft)
20.06.2009 03:40 20,2 C 12,4 C 0,0 UV-I 0,0 C 47 % 72 % 0 % 1020,6 hPa 0,0 l/m 0,2 km/h (0 Bft) 0 min 0,0 km/h (0 Bft)
20.06.2009 03:42 20,2 C 12,4 C 0,0 UV-I 0,0 C 47 % 72 % 0 % 1020,6 hPa 0,0 l/m 0,2 km/h (0 Bft) 0 min 0,0 km/h (0 Bft)
20.06.2009 03:44 20,2 C 12,4 C 0,0 UV-I 0,0 C 47 % 72 % 0 % 1020,6 hPa 0,0 l/m 0,2 km/h (0 Bft) 0 min 5,5 km/h (1 Bft)
20.06.2009 03:46 20,2 C 12,4 C 0,0 UV-I 0,0 C 47 % 72 % 0 % 1020,6 hPa 0,0 l/m 0,5 km/h (0 Bft) 0 min 0,0 km/h (0 Bft)
20.06.2009 03:48 20,1 C 12,4 C 0,0 UV-I 0,0 C 47 % 72 % 0 % 1020,6 hPa 0,0 l/m 0,5 km/h (0 Bft) 0 min 3,8 km/h (1 Bft)
20.06.2009 03:50 20,1 C 12,4 C 0,0 UV-I 0,0 C 47 % 72 % 0 % 1020,6 hPa 0,0 l/m 0,7 km/h (0 Bft) 0 min 0,0 km/h (0 Bft)
20.06.2009 03:52 20,1 C 12,4 C 0,0 UV-I 0,0 C 47 % 72 % 0 % 1020,6 hPa 0,0 l/m 1,0 km/h (0 Bft) 0 min 4,6 km/h (1 Bft)
20.06.2009 03:54 20,1 C 12,5 C 0,0 UV-I 0,0 C 47 % 72 % 0 % 1020,6 hPa 0,0 l/m 1,2 km/h (1 Bft) 0 min 3,4 km/h (1 Bft)
20.06.2009 03:56 20,1 C 12,4 C 0,0 UV-I 0,0 C 47 % 72 % 0 % 1020,6 hPa 0,0 l/m 1,0 km/h (0 Bft) 0 min 2,6 km/h (1 Bft)
20.06.2009 03:58 20,1 C 12,5 C 0,0 UV-I 0,0 C 47 % 72 % 0 % 1020,4 hPa 0,0 l/m 1,4 km/h (1 Bft) 0 min 4,3 km/h (1 Bft)
20.06.2009 04:00 20,1 C 12,5 C 0,0 UV-I 0,0 C 47 % 72 % 0 % 1020,4 hPa 0,0 l/m 1,2 km/h (1 Bft) 0 min 0,0 km/h (0 Bft)
20.06.2009 04:02 20,1 C 12,5 C 0,0 UV-I 0,0 C 47 % 72 % 0 % 1020,4 hPa 0,0 l/m 1,4 km/h (1 Bft) 0 min 3,1 km/h (1 Bft)
20.06.2009 04:04 20,0 C 12,5 C 0,0 UV-I 0,0 C 47 % 72 % 0 % 1020,4 hPa 0,0 l/m 1,0 km/h (0 Bft) 0 min 0,0 km/h (0 Bft)
20.06.2009 04:06 20,0 C 12,5 C 0,0 UV-I 0,0 C 47 % 72 % 0 % 1020,4 hPa 0,0 l/m 1,0 km/h (0 Bft) 0 min 0,0 km/h (0 Bft)
20.06.2009 04:08 20,0 C 12,5 C 0,0 UV-I 0,0 C 47 % 72 % 0 % 1020,4 hPa 0,0 l/m 0,7 km/h (0 Bft) 0 min 0,0 km/h (0 Bft)
20.06.2009 04:10 20,0 C 12,5 C 0,0 UV-I 0,0 C 47 % 72 % 0 % 1020,4 hPa 0,0 l/m 0,5 km/h (0 Bft) 0 min 0,0 km/h (0 Bft)
20.06.2009 04:12 20,0 C 12,5 C 0,0 UV-I 0,0 C 47 % 72 % 0 % 1020,4 hPa 0,0 l/m 0,5 km/h (0 Bft) 0 min 0,0 km/h (0 Bft)
20.06.2009 04:14 20,0 C 12,5 C 0,0 UV-I 0,0 C 47 % 72 % 0 % 1020,4 hPa 0,0 l/m 0,5 km/h (0 Bft) 0 min 5,1 km/h (1 Bft)
20.06.2009 04:16 20,0 C 12,5 C 0,0 UV-I 0,0 C 47 % 73 % 0 % 1020,4 hPa 0,0 l/m 1,0 km/h (0 Bft) 0 min 0,0 km/h (0 Bft)
20.06.2009 04:18 20,0 C 12,5 C 0,0 UV-I 0,0 C 47 % 73 % 0 % 1019,8 hPa 0,0 l/m 1,0 km/h (0 Bft) 0 min 3,4 km/h (1 Bft)
20.06.2009 04:20 20,0 C 12,6 C 0,0 UV-I 0,0 C 47 % 73 % 0 % 1019,8 hPa 0,0 l/m 1,0 km/h (0 Bft) 0 min 0,0 km/h (0 Bft)
20.06.2009 04:22 20,0 C 12,7 C 0,0 UV-I 0,0 C 47 % 73 % 0 % 1019,8 hPa 0,0 l/m 1,0 km/h (0 Bft) 0 min 0,0 km/h (0 Bft)
20.06.2009 04:24 20,0 C 12,7 C 0,0 UV-I 0,0 C 48 % 73 % 0 % 1019,8 hPa 0,0 l/m 1,0 km/h (0 Bft) 0 min 6,3 km/h (2 Bft)
20.06.2009 04:26 20,0 C 12,7 C 0,0 UV-I 0,0 C 48 % 73 % 0 % 1019,8 hPa 0,0 l/m 0,7 km/h (0 Bft) 0 min 2,9 km/h (1 Bft)
20.06.2009 04:28 20,0 C 12,7 C 0,0 UV-I 0,0 C 48 % 73 % 0 % 1019,8 hPa 0,0 l/m 0,7 km/h (0 Bft) 0 min 2,4 km/h (1 Bft)
20.06.2009 04:30 20,0 C 12,7 C 0,0 UV-I 0,0 C 48 % 73 % 0 % 1019,8 hPa 0,0 l/m 0,5 km/h (0 Bft) 0 min 0,0 km/h (0 Bft)
20.06.2009 04:32 20,0 C 12,7 C 0,0 UV-I 0,0 C 48 % 73 % 0 % 1019,8 hPa 0,0 l/m 0,7 km/h (0 Bft) 0 min 2,4 km/h (1 Bft)
20.06.2009 04:34 20,0 C 12,7 C 0,0 UV-I 0,0 C 48 % 74 % 0 % 1019,8 hPa 0,0 l/m 0,7 km/h (0 Bft) 0 min 0,0 km/h (0 Bft)
20.06.2009 04:36 20,0 C 12,6 C 0,0 UV-I 0,0 C 48 % 74 % 0 % 1019,8 hPa 0,0 l/m 0,7 km/h (0 Bft) 0 min 0,0 km/h (0 Bft)
20.06.2009 04:38 19,9 C 12,6 C 0,0 UV-I 0,0 C 48 % 73 % 0 % 1019,7 hPa 0,0 l/m 0,5 km/h (0 Bft) 0 min 0,0 km/h (0 Bft)
20.06.2009 04:40 19,9 C 12,6 C 0,0 UV-I 0,0 C 48 % 74 % 0 % 1019,7 hPa 0,0 l/m 0,5 km/h (0 Bft) 0 min 0,0 km/h (0 Bft)
20.06.2009 04:42 19,9 C 12,7 C 0,0 UV-I 0,0 C 48 % 74 % 0 % 1019,7 hPa 0,0 l/m 0,5 km/h (0 Bft) 0 min 3,6 km/h (1 Bft)
20.06.2009 04:44 19,9 C 12,7 C 0,0 UV-I 0,0 C 48 % 74 % 0 % 1019,7 hPa 0,0 l/m 0,5 km/h (0 Bft) 0 min 0,0 km/h (0 Bft)
20.06.2009 04:46 19,9 C 12,6 C 0,0 UV-I 0,0 C 48 % 74 % 0 % 1019,7 hPa 0,0 l/m 0,5 km/h (0 Bft) 0 min 0,0 km/h (0 Bft)
20.06.2009 04:48 19,9 C 12,7 C 0,0 UV-I 0,0 C 48 % 74 % 0 % 1019,7 hPa 0,0 l/m 0,7 km/h (0 Bft) 0 min 0,0 km/h (0 Bft)
20.06.2009 04:50 19,9 C 12,7 C 0,0 UV-I 0,0 C 48 % 74 % 0 % 1019,7 hPa 0,0 l/m 0,7 km/h (0 Bft) 0 min 0,0 km/h (0 Bft)
20.06.2009 04:52 19,9 C 12,7 C 0,0 UV-I 0,0 C 48 % 74 % 0 % 1019,7 hPa 0,0 l/m 0,7 km/h (0 Bft) 0 min 4,1 km/h (1 Bft)
20.06.2009 04:54 19,8 C 12,6 C 0,0 UV-I 0,0 C 48 % 74 % 0 % 1019,7 hPa 0,0 l/m 0,7 km/h (0 Bft) 0 min 2,4 km/h (1 Bft)
20.06.2009 04:56 19,9 C 12,7 C 0,0 UV-I 0,0 C 48 % 74 % 0 % 1019,7 hPa 0,0 l/m 0,7 km/h (0 Bft) 0 min 0,0 km/h (0 Bft)
20.06.2009 04:58 19,8 C 12,6 C 0,0 UV-I 0,0 C 48 % 74 % 0 % 1019,7 hPa 0,0 l/m 0,7 km/h (0 Bft) 0 min 2,9 km/h (1 Bft)
20.06.2009 05:00 19,8 C 12,5 C 0,0 UV-I 0,0 C 48 % 74 % 0 % 1019,7 hPa 0,0 l/m 0,7 km/h (0 Bft) 0 min 0,0 km/h (0 Bft)
20.06.2009 05:02 19,8 C 12,5 C 0,0 UV-I 0,0 C 49 % 75 % 0 % 1019,7 hPa 0,0 l/m 1,0 km/h (0 Bft) 0 min 5,3 km/h (1 Bft)
20.06.2009 05:04 19,8 C 12,5 C 0,0 UV-I 0,0 C 49 % 75 % 0 % 1019,7 hPa 0,0 l/m 1,2 km/h (1 Bft) 0 min 3,4 km/h (1 Bft)
20.06.2009 05:06 19,8 C 12,5 C 0,0 UV-I 0,0 C 49 % 75 % 0 % 1019,7 hPa 0,0 l/m 1,2 km/h (1 Bft) 0 min 0,0 km/h (0 Bft)
20.06.2009 05:08 19,8 C 12,5 C 0,0 UV-I 0,0 C 49 % 75 % 0 % 1019,7 hPa 0,0 l/m 1,2 km/h (1 Bft) 0 min 5,3 km/h (1 Bft)
20.06.2009 05:10 19,8 C 12,4 C 0,0 UV-I 0,0 C 49 % 75 % 0 % 1019,7 hPa 0,0 l/m 1,4 km/h (1 Bft) 0 min 5,1 km/h (1 Bft)
20.06.2009 05:12 19,8 C 12,4 C 0,0 UV-I 0,0 C 49 % 75 % 0 % 1019,7 hPa 0,0 l/m 1,4 km/h (1 Bft) 0 min 3,8 km/h (1 Bft)
20.06.2009 05:14 19,8 C 12,4 C 0,0 UV-I 0,0 C 49 % 75 % 0 % 1019,7 hPa 0,0 l/m 1,0 km/h (0 Bft) 0 min 0,0 km/h (0 Bft)
20.06.2009 05:16 19,8 C 12,4 C 0,0 UV-I 0,0 C 49 % 75 % 0 % 1019,7 hPa 0,0 l/m 1,0 km/h (0 Bft) 0 min 0,0 km/h (0 Bft)
20.06.2009 05:18 19,8 C 12,4 C 0,0 UV-I 0,0 C 49 % 75 % 0 % 1019,9 hPa 0,0 l/m 1,0 km/h (0 Bft) 0 min 0,0 km/h (0 Bft)
20.06.2009 05:20 19,8 C 12,4 C 0,0 UV-I 0,0 C 49 % 75 % 0 % 1019,9 hPa 0,0 l/m 1,0 km/h (0 Bft) 0 min 2,9 km/h (1 Bft)
20.06.2009 05:22 19,8 C 12,5 C 0,0 UV-I 0,0 C 49 % 75 % 0 % 1019,9 hPa 0,0 l/m 0,7 km/h (0 Bft) 0 min 0,0 km/h (0 Bft)
20.06.2009 05:24 19,8 C 12,4 C 0,0 UV-I 0,0 C 49 % 75 % 0 % 1019,9 hPa 0,0 l/m 0,7 km/h (0 Bft) 0 min 7,2 km/h (2 Bft)
20.06.2009 05:26 19,8 C 12,4 C 0,0 UV-I 0,0 C 49 % 75 % 0 % 1019,9 hPa 0,0 l/m 0,7 km/h (0 Bft) 0 min 4,1 km/h (1 Bft)
20.06.2009 05:28 19,8 C 12,4 C 0,0 UV-I 0,0 C 49 % 75 % 0 % 1019,9 hPa 0,0 l/m 0,7 km/h (0 Bft) 0 min 0,0 km/h (0 Bft)
20.06.2009 05:30 19,7 C 12,4 C 0,0 UV-I 0,0 C 49 % 75 % 0 % 1019,9 hPa 0,0 l/m 0,5 km/h (0 Bft) 0 min 0,0 km/h (0 Bft)
20.06.2009 05:32 19,7 C 12,4 C 0,0 UV-I 0,0 C 49 % 75 % 0 % 1019,9 hPa 0,0 l/m 0,5 km/h (0 Bft) 0 min 7,2 km/h (2 Bft)
20.06.2009 05:34 19,7 C 12,4 C 0,0 UV-I 0,0 C 49 % 75 % 0 % 1019,9 hPa 0,0 l/m 0,7 km/h (0 Bft) 0 min 0,0 km/h (0 Bft)
20.06.2009 05:36 19,7 C 12,4 C 0,0 UV-I 0,0 C 49 % 76 % 0 % 1019,9 hPa 0,0 l/m 0,7 km/h (0 Bft) 0 min 2,6 km/h (1 Bft)
20.06.2009 05:38 19,7 C 12,3 C 0,0 UV-I 0,0 C 49 % 76 % 0 % 1019,9 hPa 0,0 l/m 0,5 km/h (0 Bft) 0 min 2,6 km/h (1 Bft)
20.06.2009 05:40 19,7 C 12,3 C 0,0 UV-I 0,0 C 49 % 76 % 0 % 1019,9 hPa 0,0 l/m 0,7 km/h (0 Bft) 0 min 0,0 km/h (0 Bft)
20.06.2009 05:42 19,7 C 12,4 C 0,0 UV-I 0,0 C 49 % 76 % 0 % 1019,9 hPa 0,0 l/m 0,7 km/h (0 Bft) 0 min 0,0 km/h (0 Bft)
20.06.2009 05:44 19,7 C 12,3 C 0,0 UV-I 0,0 C 49 % 76 % 0 % 1019,9 hPa 0,0 l/m 0,2 km/h (0 Bft) 0 min 0,0 km/h (0 Bft)
20.06.2009 05:46 19,7 C 12,3 C 0,0 UV-I 0,0 C 49 % 76 % 0 % 1019,9 hPa 0,0 l/m 0,2 km/h (0 Bft) 0 min 0,0 km/h (0 Bft)
20.06.2009 05:48 19,7 C 12,3 C 0,0 UV-I 0,0 C 49 % 76 % 0 % 1019,9 hPa 0,0 l/m 0,2 km/h (0 Bft) 0 min 2,4 km/h (1 Bft)
20.06.2009 05:50 19,7 C 12,3 C 0,0 UV-I 0,0 C 49 % 76 % 0 % 1019,9 hPa 0,0 l/m 0,5 km/h (0 Bft) 0 min 0,0 km/h (0 Bft)
20.06.2009 05:52 19,7 C 12,3 C 0,0 UV-I 0,0 C 49 % 76 % 0 % 1019,9 hPa 0,0 l/m 0,7 km/h (0 Bft) 0 min 3,6 km/h (1 Bft)
20.06.2009 05:54 19,7 C 12,4 C 0,0 UV-I 0,0 C 49 % 76 % 0 % 1019,9 hPa 0,0 l/m 0,7 km/h (0 Bft) 0 min 4,8 km/h (1 Bft)
20.06.2009 05:56 19,7 C 12,4 C 0,0 UV-I 0,0 C 49 % 76 % 0 % 1019,9 hPa 0,0 l/m 0,7 km/h (0 Bft) 0 min 0,0 km/h (0 Bft)
20.06.2009 05:58 19,7 C 12,4 C 0,0 UV-I 0,0 C 49 % 77 % 0 % 1019,6 hPa 0,0 l/m 1,0 km/h (0 Bft) 0 min 0,0 km/h (0 Bft)
20.06.2009 06:00 19,6 C 12,4 C 0,0 UV-I 0,0 C 50 % 77 % 0 % 1019,6 hPa 0,0 l/m 1,0 km/h (0 Bft) 0 min 2,9 km/h (1 Bft)
20.06.2009 06:02 19,6 C 12,4 C 0,0 UV-I 0,0 C 50 % 77 % 0 % 1019,6 hPa 0,0 l/m 1,4 km/h (1 Bft) 0 min 0,0 km/h (0 Bft)
20.06.2009 06:04 19,6 C 12,4 C 0,0 UV-I 0,0 C 50 % 77 % 0 % 1019,6 hPa 0,0 l/m 1,4 km/h (1 Bft) 0 min 7,5 km/h (2 Bft)
20.06.2009 06:10 19,6 C 12,4 C 0,0 UV-I 0,0 C 50 % 77 % 0 % 1019,6 hPa 0,0 l/m 1,4 km/h (1 Bft) 0 min 0,0 km/h (0 Bft)
20.06.2009 06:12 19,6 C 12,5 C 0,1 UV-I 0,0 C 50 % 77 % 0 % 1019,6 hPa 0,0 l/m 1,0 km/h (0 Bft) 0 min 0,0 km/h (0 Bft)
20.06.2009 06:14 19,6 C 12,5 C 0,1 UV-I 0,0 C 50 % 77 % 0 % 1019,6 hPa 0,0 l/m 1,0 km/h (0 Bft) 0 min 7,7 km/h (2 Bft)
20.06.2009 06:16 19,6 C 12,5 C 0,1 UV-I 0,0 C 50 % 77 % 0 % 1019,6 hPa 0,0 l/m 1,0 km/h (0 Bft) 0 min 4,1 km/h (1 Bft)
20.06.2009 06:18 19,6 C 12,4 C 0,1 UV-I 0,0 C 50 % 77 % 0 % 1020,2 hPa 0,0 l/m 1,0 km/h (0 Bft) 0 min 2,4 km/h (1 Bft)
20.06.2009 06:20 19,6 C 12,5 C 0,1 UV-I 0,0 C 50 % 77 % 0 % 1020,2 hPa 0,0 l/m 1,0 km/h (0 Bft) 0 min 0,0 km/h (0 Bft)
20.06.2009 06:22 19,6 C 12,4 C 0,0 UV-I 0,0 C 50 % 77 % 0 % 1020,2 hPa 0,0 l/m 1,0 km/h (0 Bft) 0 min 0,0 km/h (0 Bft)
20.06.2009 06:24 19,6 C 12,5 C 0,0 UV-I 0,0 C 50 % 77 % 0 % 1020,2 hPa 0,0 l/m 1,0 km/h (0 Bft) 0 min 8,4 km/h (2 Bft)
20.06.2009 06:26 19,6 C 12,5 C 0,0 UV-I 0,0 C 50 % 77 % 0 % 1020,2 hPa 0,0 l/m 1,0 km/h (0 Bft) 0 min 0,0 km/h (0 Bft)
20.06.2009 06:28 19,6 C 12,4 C 0,1 UV-I 0,0 C 50 % 78 % 0 % 1020,2 hPa 0,0 l/m 1,2 km/h (1 Bft) 0 min 4,3 km/h (1 Bft)
20.06.2009 06:30 19,6 C 12,4 C 0,1 UV-I 0,0 C 50 % 78 % 0 % 1020,2 hPa 0,0 l/m 1,0 km/h (0 Bft) 0 min 0,0 km/h (0 Bft)
20.06.2009 06:32 19,6 C 12,5 C 0,1 UV-I 0,0 C 50 % 78 % 0 % 1020,2 hPa 0,0 l/m 1,0 km/h (0 Bft) 0 min 0,0 km/h (0 Bft)
20.06.2009 06:34 19,6 C 12,4 C 0,1 UV-I 0,0 C 51 % 78 % 0 % 1020,2 hPa 0,0 l/m 1,2 km/h (1 Bft) 0 min 2,6 km/h (1 Bft)
20.06.2009 06:36 19,6 C 12,4 C 0,1 UV-I 0,0 C 51 % 78 % 0 % 1020,2 hPa 0,0 l/m 1,2 km/h (1 Bft) 0 min 5,5 km/h (1 Bft)
20.06.2009 06:38 19,6 C 12,5 C 0,2 UV-I 0,0 C 51 % 78 % 0 % 1020,0 hPa 0,0 l/m 1,4 km/h (1 Bft) 0 min 3,4 km/h (1 Bft)
20.06.2009 06:40 19,6 C 12,5 C 0,2 UV-I 0,0 C 51 % 78 % 0 % 1020,0 hPa 0,0 l/m 1,2 km/h (1 Bft) 0 min 2,6 km/h (1 Bft)
20.06.2009 06:42 19,6 C 12,5 C 0,2 UV-I 0,0 C 51 % 78 % 0 % 1020,0 hPa 0,0 l/m 1,0 km/h (0 Bft) 0 min 0,0 km/h (0 Bft)
20.06.2009 06:44 19,6 C 12,5 C 0,2 UV-I 0,0 C 51 % 78 % 0 % 1020,0 hPa 0,0 l/m 1,0 km/h (0 Bft) 0 min 0,0 km/h (0 Bft)
20.06.2009 06:46 19,6 C 12,5 C 0,2 UV-I 0,0 C 51 % 78 % 0 % 1020,0 hPa 0,0 l/m 1,0 km/h (0 Bft) 0 min 2,4 km/h (1 Bft)
20.06.2009 06:48 19,6 C 12,7 C 0,2 UV-I 0,0 C 51 % 78 % 0 % 1020,0 hPa 0,0 l/m 1,0 km/h (0 Bft) 0 min 0,0 km/h (0 Bft)
20.06.2009 06:50 19,6 C 12,6 C 0,2 UV-I 0,0 C 51 % 78 % 0 % 1020,0 hPa 0,0 l/m 1,2 km/h (1 Bft) 0 min 0,0 km/h (0 Bft)
20.06.2009 06:52 19,6 C 12,7 C 0,3 UV-I 0,0 C 51 % 79 % 0 % 1020,0 hPa 0,0 l/m 1,7 km/h (1 Bft) 0 min 2,6 km/h (1 Bft)
20.06.2009 06:54 19,6 C 12,7 C 0,3 UV-I 0,0 C 51 % 79 % 0 % 1020,0 hPa 0,0 l/m 1,9 km/h (1 Bft) 0 min 3,6 km/h (1 Bft)
20.06.2009 06:56 19,6 C 12,6 C 0,3 UV-I 0,0 C 51 % 78 % 0 % 1020,0 hPa 0,0 l/m 2,2 km/h (1 Bft) 0 min 2,4 km/h (1 Bft)
20.06.2009 06:58 19,6 C 12,6 C 0,3 UV-I 0,0 C 51 % 79 % 0 % 1019,9 hPa 0,0 l/m 1,9 km/h (1 Bft) 0 min 0,0 km/h (0 Bft)
20.06.2009 07:00 19,6 C 12,7 C 0,3 UV-I 0,0 C 51 % 79 % 0 % 1019,9 hPa 0,0 l/m 1,7 km/h (1 Bft) 0 min 0,0 km/h (0 Bft)
20.06.2009 07:02 19,6 C 12,7 C 0,3 UV-I 0,0 C 51 % 79 % 0 % 1019,9 hPa 0,0 l/m 1,7 km/h (1 Bft) 0 min 4,1 km/h (1 Bft)
20.06.2009 07:04 19,6 C 12,7 C 0,3 UV-I 0,0 C 52 % 79 % 0 % 1019,9 hPa 0,0 l/m 1,4 km/h (1 Bft) 0 min 3,1 km/h (1 Bft)
20.06.2009 07:08 19,7 C 12,8 C 0,3 UV-I 0,0 C 52 % 79 % 0 % 1019,9 hPa 0,0 l/m 1,2 km/h (1 Bft) 0 min 4,3 km/h (1 Bft)
20.06.2009 07:10 19,7 C 12,7 C 0,3 UV-I 0,0 C 52 % 79 % 0 % 1019,9 hPa 0,0 l/m 1,2 km/h (1 Bft) 0 min 0,0 km/h (0 Bft)
20.06.2009 07:12 19,7 C 12,8 C 0,3 UV-I 0,0 C 52 % 79 % 0 % 1019,9 hPa 0,0 l/m 1,0 km/h (0 Bft) 0 min 0,0 km/h (0 Bft)
20.06.2009 07:14 19,7 C 12,8 C 0,3 UV-I 0,0 C 52 % 79 % 0 % 1019,9 hPa 0,0 l/m 0,7 km/h (0 Bft) 0 min 0,0 km/h (0 Bft)
20.06.2009 07:16 19,8 C 12,9 C 0,3 UV-I 0,0 C 52 % 79 % 0 % 1019,9 hPa 0,0 l/m 0,5 km/h (0 Bft) 0 min 2,6 km/h (1 Bft)
20.06.2009 07:18 19,8 C 12,9 C 0,4 UV-I 0,0 C 52 % 79 % 0 % 1020,4 hPa 0,0 l/m 0,5 km/h (0 Bft) 0 min 0,0 km/h (0 Bft)
20.06.2009 07:59 20,5 C 13,5 C 0,8 UV-I 0,4 C 52 % 80 % 11 % 1021,0 hPa 0,0 l/m 0,2 km/h (0 Bft) 0 min 0,0 km/h (0 Bft)
20.06.2009 08:02 20,5 C 13,5 C 0,9 UV-I 0,5 C 52 % 80 % 14 % 1021,0 hPa 0,0 l/m 0,2 km/h (0 Bft) 0 min 0,0 km/h (0 Bft)
20.06.2009 08:04 20,5 C 13,5 C 0,9 UV-I 0,6 C 52 % 80 % 17 % 1021,0 hPa 0,0 l/m 0,5 km/h (0 Bft) 0 min 2,6 km/h (1 Bft)
20.06.2009 08:06 20,5 C 13,6 C 0,9 UV-I 0,5 C 52 % 80 % 14 % 1021,0 hPa 0,0 l/m 0,7 km/h (0 Bft) 0 min 2,4 km/h (1 Bft)
20.06.2009 08:08 20,6 C 13,6 C 0,9 UV-I 0,5 C 52 % 79 % 14 % 1021,0 hPa 0,0 l/m 0,7 km/h (0 Bft) 0 min 0,0 km/h (0 Bft)
20.06.2009 08:12 20,6 C 13,7 C 0,9 UV-I 0,6 C 52 % 79 % 17 % 1021,0 hPa 0,0 l/m 0,5 km/h (0 Bft) 0 min 0,0 km/h (0 Bft)
20.06.2009 08:15 20,7 C 13,7 C 0,9 UV-I 0,7 C 52 % 79 % 20 % 1021,0 hPa 0,0 l/m 0,5 km/h (0 Bft) 0 min 4,6 km/h (1 Bft)
20.06.2009 08:46 20,9 C 14,3 C 1,6 UV-I 1,2 C 52 % 78 % 34 % 1020,9 hPa 0,0 l/m 1,0 km/h (0 Bft) 0 min 2,6 km/h (1 Bft)
20.06.2009 08:48 20,9 C 14,3 C 1,6 UV-I 1,2 C 52 % 78 % 34 % 1020,9 hPa 0,0 l/m 1,0 km/h (0 Bft) 0 min 2,6 km/h (1 Bft)
20.06.2009 08:50 21,0 C 14,4 C 1,6 UV-I 1,2 C 52 % 78 % 34 % 1020,9 hPa 0,0 l/m 1,0 km/h (0 Bft) 0 min 0,0 km/h (0 Bft)
20.06.2009 08:52 21,0 C 14,4 C 1,8 UV-I 1,3 C 52 % 78 % 37 % 1020,9 hPa 0,0 l/m 1,0 km/h (0 Bft) 0 min 3,4 km/h (1 Bft)
20.06.2009 08:54 21,0 C 14,4 C 1,8 UV-I 1,4 C 52 % 78 % 40 % 1020,9 hPa 0,0 l/m 1,0 km/h (0 Bft) 0 min 0,0 km/h (0 Bft)
20.06.2009 08:56 21,0 C 14,5 C 1,8 UV-I 1,4 C 52 % 78 % 40 % 1020,9 hPa 0,0 l/m 1,2 km/h (1 Bft) 0 min 4,1 km/h (1 Bft)
20.06.2009 08:58 21,0 C 14,6 C 1,8 UV-I 1,4 C 52 % 78 % 40 % 1021,2 hPa 0,0 l/m 1,2 km/h (1 Bft) 0 min 6,7 km/h (2 Bft)
20.06.2009 09:00 21,1 C 14,6 C 1,8 UV-I 1,4 C 52 % 77 % 40 % 1021,2 hPa 0,0 l/m 1,7 km/h (1 Bft) 0 min 0,0 km/h (0 Bft)
20.06.2009 09:02 21,1 C 14,7 C 1,9 UV-I 1,3 C 52 % 77 % 37 % 1021,2 hPa 0,0 l/m 1,7 km/h (1 Bft) 0 min 0,0 km/h (0 Bft)
20.06.2009 09:04 21,1 C 14,7 C 1,9 UV-I 1,4 C 52 % 77 % 40 % 1021,2 hPa 0,0 l/m 1,7 km/h (1 Bft) 0 min 9,6 km/h (2 Bft)
20.06.2009 09:06 21,1 C 14,8 C 1,9 UV-I 1,4 C 52 % 78 % 40 % 1021,2 hPa 0,0 l/m 2,4 km/h (1 Bft) 0 min 0,0 km/h (0 Bft)
20.06.2009 09:08 21,1 C 14,9 C 2,0 UV-I 1,3 C 52 % 78 % 37 % 1021,2 hPa 0,0 l/m 2,2 km/h (1 Bft) 0 min 0,0 km/h (0 Bft)
20.06.2009 09:10 21,2 C 14,9 C 2,0 UV-I 1,3 C 52 % 77 % 37 % 1021,2 hPa 0,0 l/m 1,9 km/h (1 Bft) 0 min 7,2 km/h (2 Bft)
20.06.2009 09:12 21,2 C 14,9 C 2,0 UV-I 1,3 C 52 % 77 % 37 % 1021,2 hPa 0,0 l/m 2,4 km/h (1 Bft) 0 min 6,0 km/h (2 Bft)
20.06.2009 09:14 21,2 C 15,0 C 2,0 UV-I 1,2 C 52 % 77 % 34 % 1021,2 hPa 0,0 l/m 2,6 km/h (1 Bft) 0 min 5,3 km/h (1 Bft)
20.06.2009 09:17 21,2 C 15,1 C 2,1 UV-I 1,2 C 52 % 76 % 34 % 1021,2 hPa 0,0 l/m 2,4 km/h (1 Bft) 0 min 4,1 km/h (1 Bft)
20.06.2009 09:18 21,2 C 15,1 C 2,1 UV-I 1,2 C 52 % 76 % 34 % 1021,2 hPa 0,0 l/m 2,4 km/h (1 Bft) 0 min 4,1 km/h (1 Bft)
20.06.2009 09:20 21,2 C 15,1 C 2,1 UV-I 1,3 C 52 % 76 % 37 % 1021,2 hPa 0,0 l/m 2,4 km/h (1 Bft) 0 min 0,0 km/h (0 Bft)
20.06.2009 09:22 21,2 C 15,2 C 2,2 UV-I 1,4 C 52 % 77 % 40 % 1021,2 hPa 0,0 l/m 2,2 km/h (1 Bft) 0 min 4,6 km/h (1 Bft)
20.06.2009 09:24 21,3 C 15,2 C 2,2 UV-I 1,5 C 52 % 77 % 43 % 1021,2 hPa 0,0 l/m 1,9 km/h (1 Bft) 0 min 7,9 km/h (2 Bft)
20.06.2009 09:26 21,3 C 15,3 C 2,2 UV-I 1,4 C 52 % 76 % 40 % 1021,2 hPa 0,0 l/m 1,9 km/h (1 Bft) 0 min 3,8 km/h (1 Bft)
20.06.2009 09:28 21,2 C 15,3 C 1,9 UV-I 1,5 C 52 % 76 % 43 % 1021,2 hPa 0,0 l/m 1,9 km/h (1 Bft) 0 min 0,0 km/h (0 Bft)
20.06.2009 09:32 21,2 C 15,4 C 2,1 UV-I 1,3 C 52 % 75 % 37 % 1021,2 hPa 0,0 l/m 1,7 km/h (1 Bft) 0 min 2,9 km/h (1 Bft)
20.06.2009 09:34 21,2 C 15,5 C 2,1 UV-I 1,2 C 52 % 75 % 34 % 1021,2 hPa 0,0 l/m 1,7 km/h (1 Bft) 0 min 0,0 km/h (0 Bft)
20.06.2009 09:36 21,2 C 15,5 C 2,1 UV-I 1,4 C 52 % 74 % 40 % 1021,2 hPa 0,0 l/m 1,7 km/h (1 Bft) 0 min 9,9 km/h (2 Bft)
20.06.2009 09:38 21,4 C 15,5 C 2,5 UV-I 1,6 C 52 % 74 % 46 % 1021,2 hPa 0,0 l/m 1,7 km/h (1 Bft) 0 min 0,0 km/h (0 Bft)
20.06.2009 09:40 21,4 C 15,6 C 2,5 UV-I 1,5 C 52 % 74 % 43 % 1021,2 hPa 0,0 l/m 2,2 km/h (1 Bft) 0 min 0,0 km/h (0 Bft)
20.06.2009 09:42 21,4 C 15,6 C 2,6 UV-I 1,7 C 52 % 74 % 49 % 1021,2 hPa 0,0 l/m 2,2 km/h (1 Bft) 0 min 3,8 km/h (1 Bft)
20.06.2009 09:44 21,4 C 15,6 C 2,6 UV-I 1,9 C 52 % 74 % 54 % 1021,2 hPa 0,0 l/m 2,4 km/h (1 Bft) 0 min 10,1 km/h (2 Bft)
20.06.2009 09:46 21,4 C 15,7 C 2,6 UV-I 1,8 C 52 % 74 % 51 % 1021,2 hPa 0,0 l/m 2,2 km/h (1 Bft) 0 min 0,0 km/h (0 Bft)
20.06.2009 09:48 21,4 C 15,8 C 2,4 UV-I 2,3 C 52 % 74 % 66 % 1021,2 hPa 0,0 l/m 1,9 km/h (1 Bft) 0 min 4,1 km/h (1 Bft)
20.06.2009 09:50 21,4 C 15,9 C 2,4 UV-I 2,5 C 52 % 74 % 71 % 1021,2 hPa 0,0 l/m 2,2 km/h (1 Bft) 0 min 6,3 km/h (2 Bft)
20.06.2009 09:52 21,5 C 15,8 C 2,0 UV-I 2,4 C 52 % 73 % 69 % 1021,2 hPa 0,0 l/m 2,4 km/h (1 Bft) 0 min 5,1 km/h (1 Bft)
20.06.2009 09:54 21,5 C 15,9 C 2,0 UV-I 2,1 C 52 % 74 % 60 % 1021,2 hPa 0,0 l/m 2,6 km/h (1 Bft) 0 min 3,1 km/h (1 Bft)
20.06.2009 09:56 21,5 C 15,9 C 2,0 UV-I 1,8 C 52 % 73 % 51 % 1021,2 hPa 0,0 l/m 2,4 km/h (1 Bft) 0 min 0,0 km/h (0 Bft)
20.06.2009 09:58 21,5 C 16,0 C 2,0 UV-I 1,6 C 52 % 73 % 46 % 1021,5 hPa 0,0 l/m 2,9 km/h (1 Bft) 0 min 5,8 km/h (2 Bft)
20.06.2009 10:00 21,5 C 16,0 C 2,0 UV-I 1,4 C 52 % 72 % 40 % 1021,5 hPa 0,0 l/m 2,6 km/h (1 Bft) 0 min 2,6 km/h (1 Bft)
20.06.2009 10:02 21,5 C 16,1 C 2,1 UV-I 1,8 C 52 % 72 % 51 % 1021,5 hPa 0,0 l/m 2,2 km/h (1 Bft) 0 min 3,8 km/h (1 Bft)
20.06.2009 10:04 21,6 C 16,1 C 2,1 UV-I 2,2 C 52 % 72 % 63 % 1021,5 hPa 0,0 l/m 1,4 km/h (1 Bft) 0 min 4,3 km/h (1 Bft)
20.06.2009 10:06 21,6 C 16,1 C 2,1 UV-I 2,4 C 52 % 72 % 69 % 1021,5 hPa 0,0 l/m 1,2 km/h (1 Bft) 0 min 2,4 km/h (1 Bft)
20.06.2009 10:08 21,6 C 16,1 C 2,4 UV-I 2,6 C 52 % 72 % 74 % 1021,5 hPa 0,0 l/m 1,0 km/h (0 Bft) 0 min 0,0 km/h (0 Bft)
20.06.2009 10:10 21,6 C 16,1 C 2,4 UV-I 2,5 C 52 % 71 % 71 % 1021,5 hPa 0,0 l/m 0,7 km/h (0 Bft) 0 min 0,0 km/h (0 Bft)
20.06.2009 10:12 21,6 C 16,3 C 2,6 UV-I 2,7 C 52 % 71 % 77 % 1021,5 hPa 0,0 l/m 1,0 km/h (0 Bft) 0 min 5,5 km/h (1 Bft)
20.06.2009 10:14 21,6 C 16,2 C 2,6 UV-I 3,1 C 52 % 71 % 89 % 1021,5 hPa 0,0 l/m 1,4 km/h (1 Bft) 2 min 13,0 km/h (3 Bft)
20.06.2009 10:16 21,6 C 16,4 C 2,6 UV-I 3,7 C 52 % 68 % 100 % 1021,5 hPa 0,0 l/m 2,2 km/h (1 Bft) 2 min 7,0 km/h (2 Bft)
20.06.2009 10:18 21,6 C 16,5 C 2,7 UV-I 4,0 C 51 % 68 % 100 % 1021,1 hPa 0,0 l/m 2,4 km/h (1 Bft) 2 min 0,0 km/h (0 Bft)
20.06.2009 10:20 21,6 C 16,7 C 2,7 UV-I 4,4 C 51 % 68 % 100 % 1021,1 hPa 0,0 l/m 3,1 km/h (1 Bft) 2 min 11,1 km/h (2 Bft)
20.06.2009 10:22 21,6 C 16,7 C 2,8 UV-I 4,9 C 51 % 67 % 100 % 1021,1 hPa 0,0 l/m 3,8 km/h (1 Bft) 2 min 5,8 km/h (2 Bft)
20.06.2009 10:33 21,7 C 17,3 C 3,1 UV-I 4,9 C 51 % 64 % 100 % 1021,1 hPa 0,0 l/m 3,1 km/h (1 Bft) 2 min 4,3 km/h (1 Bft)
20.06.2009 10:34 21,7 C 17,3 C 3,1 UV-I 4,9 C 51 % 64 % 100 % 1021,1 hPa 0,0 l/m 3,1 km/h (1 Bft) 1 min 4,3 km/h (1 Bft)
20.06.2009 10:36 21,7 C 17,4 C 3,1 UV-I 4,8 C 51 % 64 % 100 % 1021,1 hPa 0,0 l/m 3,4 km/h (1 Bft) 2 min 7,0 km/h (2 Bft)
20.06.2009 10:38 21,7 C 17,5 C 3,0 UV-I 5,0 C 50 % 64 % 100 % 1021,3 hPa 0,0 l/m 3,8 km/h (1 Bft) 2 min 11,8 km/h (2 Bft)
20.06.2009 10:40 21,7 C 17,4 C 3,0 UV-I 4,6 C 50 % 64 % 100 % 1021,3 hPa 0,0 l/m 3,6 km/h (1 Bft) 2 min 2,4 km/h (1 Bft)
20.06.2009 10:42 21,7 C 17,5 C 2,7 UV-I 3,9 C 50 % 64 % 100 % 1021,3 hPa 0,0 l/m 3,8 km/h (1 Bft) 2 min 3,4 km/h (1 Bft)
20.06.2009 10:44 21,8 C 17,6 C 2,7 UV-I 3,2 C 50 % 63 % 91 % 1021,3 hPa 0,0 l/m 4,1 km/h (1 Bft) 2 min 8,9 km/h (2 Bft)
20.06.2009 10:46 21,8 C 17,6 C 2,7 UV-I 2,7 C 50 % 63 % 77 % 1021,3 hPa 0,0 l/m 4,1 km/h (1 Bft) 0 min 5,5 km/h (1 Bft)
20.06.2009 10:48 21,8 C 17,5 C 2,4 UV-I 2,4 C 50 % 63 % 69 % 1021,3 hPa 0,0 l/m 3,8 km/h (1 Bft) 0 min 5,1 km/h (1 Bft)
20.06.2009 10:50 21,8 C 17,5 C 2,4 UV-I 2,5 C 50 % 63 % 71 % 1021,3 hPa 0,0 l/m 2,9 km/h (1 Bft) 0 min 2,6 km/h (1 Bft)
20.06.2009 10:52 21,8 C 17,7 C 3,7 UV-I 2,8 C 50 % 63 % 80 % 1021,3 hPa 0,0 l/m 2,6 km/h (1 Bft) 0 min 0,0 km/h (0 Bft)
20.06.2009 10:54 21,8 C 17,7 C 3,7 UV-I 3,5 C 50 % 63 % 100 % 1021,3 hPa 0,0 l/m 3,1 km/h (1 Bft) 2 min 18,3 km/h (3 Bft)
20.06.2009 10:56 21,8 C 17,9 C 3,7 UV-I 3,7 C 50 % 63 % 100 % 1021,3 hPa 0,0 l/m 3,8 km/h (1 Bft) 2 min 11,1 km/h (2 Bft)
20.06.2009 10:58 21,9 C 18,0 C 3,6 UV-I 3,9 C 50 % 62 % 100 % 1021,0 hPa 0,0 l/m 3,6 km/h (1 Bft) 2 min 3,4 km/h (1 Bft)
20.06.2009 11:00 21,9 C 18,0 C 3,6 UV-I 3,7 C 50 % 61 % 100 % 1021,0 hPa 0,0 l/m 4,1 km/h (1 Bft) 2 min 10,6 km/h (2 Bft)
20.06.2009 11:02 21,9 C 18,1 C 3,1 UV-I 3,1 C 50 % 61 % 89 % 1021,0 hPa 0,0 l/m 4,1 km/h (1 Bft) 2 min 4,8 km/h (1 Bft)
20.06.2009 11:04 21,9 C 18,2 C 3,1 UV-I 3,3 C 50 % 61 % 94 % 1021,0 hPa 0,0 l/m 4,3 km/h (1 Bft) 2 min 3,8 km/h (1 Bft)
20.06.2009 11:06 22,0 C 18,3 C 3,1 UV-I 3,2 C 50 % 61 % 91 % 1021,0 hPa 0,0 l/m 3,6 km/h (1 Bft) 2 min 8,2 km/h (2 Bft)
20.06.2009 11:08 21,9 C 18,2 C 2,7 UV-I 2,7 C 50 % 61 % 77 % 1021,0 hPa 0,0 l/m 3,1 km/h (1 Bft) 0 min 0,0 km/h (0 Bft)
20.06.2009 11:10 21,9 C 18,3 C 2,7 UV-I 2,1 C 49 % 60 % 60 % 1021,0 hPa 0,0 l/m 3,4 km/h (1 Bft) 0 min 4,3 km/h (1 Bft)
20.06.2009 11:12 22,0 C 18,1 C 1,9 UV-I 1,7 C 49 % 60 % 49 % 1021,0 hPa 0,0 l/m 3,1 km/h (1 Bft) 0 min 4,1 km/h (1 Bft)
20.06.2009 11:14 22,0 C 18,1 C 1,9 UV-I 1,2 C 49 % 60 % 34 % 1021,0 hPa 0,0 l/m 3,1 km/h (1 Bft) 0 min 9,9 km/h (2 Bft)
20.06.2009 11:16 22,0 C 18,0 C 1,9 UV-I 1,0 C 49 % 60 % 29 % 1021,0 hPa 0,0 l/m 3,4 km/h (1 Bft) 0 min 5,8 km/h (2 Bft)
20.06.2009 11:18 22,0 C 18,0 C 2,0 UV-I 0,6 C 49 % 60 % 17 % 1021,1 hPa 0,0 l/m 2,9 km/h (1 Bft) 0 min 6,3 km/h (2 Bft)
20.06.2009 11:20 22,0 C 18,0 C 2,0 UV-I 0,5 C 49 % 60 % 14 % 1021,1 hPa 0,0 l/m 3,4 km/h (1 Bft) 0 min 9,9 km/h (2 Bft)
20.06.2009 11:22 22,0 C 18,0 C 2,0 UV-I 0,3 C 49 % 61 % 9 % 1021,1 hPa 0,0 l/m 4,1 km/h (1 Bft) 0 min 11,3 km/h (2 Bft)
20.06.2009 11:24 22,0 C 17,9 C 2,0 UV-I 0,2 C 49 % 61 % 6 % 1021,1 hPa 0,0 l/m 4,1 km/h (1 Bft) 0 min 2,6 km/h (1 Bft)
20.06.2009 11:26 22,0 C 17,9 C 2,0 UV-I 0,3 C 49 % 61 % 9 % 1021,1 hPa 0,0 l/m 3,8 km/h (1 Bft) 0 min 3,8 km/h (1 Bft)
20.06.2009 11:28 22,0 C 17,9 C 2,4 UV-I 0,4 C 49 % 61 % 11 % 1021,1 hPa 0,0 l/m 3,8 km/h (1 Bft) 0 min 6,5 km/h (2 Bft)
20.06.2009 11:30 22,0 C 17,9 C 2,4 UV-I 0,4 C 49 % 61 % 11 % 1021,1 hPa 0,0 l/m 4,3 km/h (1 Bft) 0 min 7,0 km/h (2 Bft)
20.06.2009 11:32 22,0 C 17,8 C 2,4 UV-I 0,3 C 49 % 61 % 9 % 1021,1 hPa 0,0 l/m 4,8 km/h (1 Bft) 0 min 10,6 km/h (2 Bft)
20.06.2009 11:34 22,0 C 17,9 C 2,4 UV-I 0,0 C 49 % 62 % 0 % 1021,1 hPa 0,0 l/m 4,6 km/h (1 Bft) 0 min 0,0 km/h (0 Bft)
20.06.2009 11:36 22,0 C 17,9 C 2,4 UV-I 0,0 C 49 % 62 % 0 % 1021,1 hPa 0,0 l/m 4,8 km/h (1 Bft) 0 min 7,9 km/h (2 Bft)
20.06.2009 11:38 22,0 C 17,8 C 4,0 UV-I 0,2 C 49 % 62 % 6 % 1021,3 hPa 0,0 l/m 5,5 km/h (1 Bft) 0 min 12,0 km/h (2 Bft)
20.06.2009 11:40 22,0 C 17,8 C 4,0 UV-I 1,1 C 49 % 63 % 31 % 1021,3 hPa 0,0 l/m 4,8 km/h (1 Bft) 0 min 5,5 km/h (1 Bft)
20.06.2009 11:42 22,0 C 18,0 C 5,2 UV-I 1,7 C 49 % 63 % 49 % 1021,3 hPa 0,0 l/m 4,6 km/h (1 Bft) 0 min 5,5 km/h (1 Bft)
20.06.2009 11:44 22,0 C 18,0 C 5,2 UV-I 1,9 C 49 % 62 % 54 % 1021,3 hPa 0,0 l/m 3,8 km/h (1 Bft) 0 min 2,6 km/h (1 Bft)
20.06.2009 11:46 22,0 C 18,0 C 5,2 UV-I 1,7 C 49 % 61 % 49 % 1021,3 hPa 0,0 l/m 4,3 km/h (1 Bft) 0 min 6,5 km/h (2 Bft)
20.06.2009 11:48 22,0 C 18,0 C 3,9 UV-I 1,5 C 49 % 61 % 43 % 1021,3 hPa 0,0 l/m 4,1 km/h (1 Bft) 0 min 5,8 km/h (2 Bft)
20.06.2009 11:50 22,0 C 18,1 C 3,9 UV-I 1,5 C 49 % 60 % 43 % 1021,3 hPa 0,0 l/m 4,3 km/h (1 Bft) 0 min 7,2 km/h (2 Bft)
20.06.2009 11:52 22,0 C 18,1 C 4,7 UV-I 1,6 C 49 % 60 % 46 % 1021,3 hPa 0,0 l/m 3,8 km/h (1 Bft) 0 min 2,6 km/h (1 Bft)
20.06.2009 11:54 22,0 C 18,0 C 4,7 UV-I 1,8 C 49 % 59 % 51 % 1021,3 hPa 0,0 l/m 4,1 km/h (1 Bft) 0 min 8,9 km/h (2 Bft)
20.06.2009 11:56 22,0 C 18,1 C 4,7 UV-I 1,8 C 49 % 60 % 51 % 1021,3 hPa 0,0 l/m 3,8 km/h (1 Bft) 0 min 9,4 km/h (2 Bft)
20.06.2009 11:58 22,0 C 18,1 C 4,6 UV-I 2,3 C 49 % 60 % 66 % 1021,2 hPa 0,0 l/m 3,4 km/h (1 Bft) 0 min 3,1 km/h (1 Bft)
20.06.2009 12:00 22,0 C 18,1 C 4,6 UV-I 2,4 C 49 % 58 % 69 % 1021,2 hPa 0,0 l/m 3,8 km/h (1 Bft) 0 min 12,0 km/h (2 Bft)
20.06.2009 12:02 21,9 C 18,1 C 1,9 UV-I 2,2 C 49 % 59 % 63 % 1021,2 hPa 0,0 l/m 4,1 km/h (1 Bft) 0 min 6,5 km/h (2 Bft)
20.06.2009 12:04 21,9 C 18,1 C 1,9 UV-I 2,1 C 49 % 59 % 60 % 1021,2 hPa 0,0 l/m 4,1 km/h (1 Bft) 0 min 5,5 km/h (1 Bft)
20.06.2009 12:06 21,9 C 18,1 C 1,9 UV-I 2,1 C 49 % 59 % 60 % 1021,2 hPa 0,0 l/m 4,1 km/h (1 Bft) 0 min 5,5 km/h (1 Bft)
20.06.2009 12:08 21,9 C 18,1 C 1,9 UV-I 2,1 C 49 % 59 % 60 % 1021,2 hPa 0,0 l/m 4,1 km/h (1 Bft) 0 min 5,5 km/h (1 Bft)
20.06.2009 12:10 21,9 C 18,1 C 1,9 UV-I 2,1 C 49 % 59 % 60 % 1021,2 hPa 0,0 l/m 4,1 km/h (1 Bft) 0 min 5,5 km/h (1 Bft)
20.06.2009 12:12 21,9 C 18,1 C 1,9 UV-I 2,1 C 49 % 59 % 60 % 1021,2 hPa 0,0 l/m 4,1 km/h (1 Bft) 0 min 5,5 km/h (1 Bft)
20.06.2009 12:14 21,9 C 16,1 C 1,9 UV-I 0,0 C 49 % 64 % 0 % 1021,2 hPa 0,0 l/m 6,5 km/h (2 Bft) 0 min 4,8 km/h (1 Bft)
20.06.2009 12:16 21,9 C 15,9 C 1,9 UV-I 0,0 C 49 % 65 % 0 % 1021,2 hPa 1,6 l/m 5,8 km/h (2 Bft) 0 min 3,1 km/h (1 Bft)
20.06.2009 12:18 21,9 C 15,9 C 1,3 UV-I 0,0 C 49 % 67 % 0 % 1021,1 hPa 0,0 l/m 4,1 km/h (1 Bft) 0 min 3,4 km/h (1 Bft)
20.06.2009 12:20 21,8 C 15,7 C 1,3 UV-I 0,0 C 49 % 66 % 0 % 1021,1 hPa 0,0 l/m 2,4 km/h (1 Bft) 0 min 0,0 km/h (0 Bft)
20.06.2009 12:22 21,8 C 15,7 C 2,0 UV-I 0,0 C 49 % 68 % 0 % 1021,1 hPa 0,0 l/m 1,7 km/h (1 Bft) 0 min 0,0 km/h (0 Bft)
20.06.2009 12:24 21,8 C 15,5 C 2,0 UV-I 0,0 C 49 % 69 % 0 % 1021,1 hPa 0,0 l/m 1,2 km/h (1 Bft) 0 min 0,0 km/h (0 Bft)
20.06.2009 12:26 21,8 C 15,5 C 2,0 UV-I 0,0 C 50 % 70 % 0 % 1021,1 hPa 0,0 l/m 0,7 km/h (0 Bft) 0 min 0,0 km/h (0 Bft)
20.06.2009 12:28 21,8 C 15,4 C 2,4 UV-I 0,0 C 50 % 71 % 0 % 1021,1 hPa 0,0 l/m 0,7 km/h (0 Bft) 0 min 0,0 km/h (0 Bft)
20.06.2009 12:30 21,8 C 15,5 C 2,4 UV-I 0,0 C 50 % 72 % 0 % 1021,1 hPa 0,0 l/m 0,2 km/h (0 Bft) 0 min 0,0 km/h (0 Bft)
20.06.2009 12:32 21,8 C 15,4 C 2,3 UV-I 0,0 C 50 % 73 % 0 % 1021,1 hPa 0,0 l/m 0,0 km/h (0 Bft) 0 min 0,0 km/h (0 Bft)
20.06.2009 12:34 21,8 C 15,5 C 2,3 UV-I 0,0 C 50 % 73 % 0 % 1021,1 hPa 0,0 l/m 0,0 km/h (0 Bft) 0 min 0,0 km/h (0 Bft)
20.06.2009 12:36 21,8 C 15,5 C 2,3 UV-I 0,0 C 51 % 73 % 0 % 1021,1 hPa 0,0 l/m 0,0 km/h (0 Bft) 0 min 0,0 km/h (0 Bft)
20.06.2009 12:38 21,8 C 15,4 C 0,9 UV-I 0,0 C 51 % 74 % 0 % 1021,1 hPa 0,0 l/m 0,2 km/h (0 Bft) 0 min 0,0 km/h (0 Bft)
20.06.2009 12:40 21,8 C 15,3 C 0,9 UV-I 0,0 C 51 % 76 % 0 % 1021,1 hPa 0,0 l/m 0,0 km/h (0 Bft) 0 min 0,0 km/h (0 Bft)
20.06.2009 12:42 21,8 C 15,3 C 1,2 UV-I 0,0 C 51 % 76 % 0 % 1021,1 hPa 0,0 l/m 0,0 km/h (0 Bft) 0 min 0,0 km/h (0 Bft)
20.06.2009 12:44 21,8 C 15,3 C 1,2 UV-I 0,0 C 52 % 76 % 0 % 1021,1 hPa 0,0 l/m 0,2 km/h (0 Bft) 0 min 3,1 km/h (1 Bft)
20.06.2009 12:46 21,8 C 15,3 C 1,2 UV-I 0,0 C 52 % 76 % 0 % 1021,1 hPa 0,0 l/m 0,2 km/h (0 Bft) 0 min 0,0 km/h (0 Bft)
20.06.2009 12:48 21,8 C 15,2 C 1,2 UV-I 0,0 C 52 % 77 % 0 % 1021,1 hPa 0,0 l/m 0,2 km/h (0 Bft) 0 min 0,0 km/h (0 Bft)
20.06.2009 12:50 21,8 C 15,3 C 1,2 UV-I 0,0 C 52 % 78 % 0 % 1021,1 hPa 0,0 l/m 0,2 km/h (0 Bft) 0 min 0,0 km/h (0 Bft)
20.06.2009 12:52 21,8 C 15,2 C 2,6 UV-I 0,0 C 52 % 78 % 0 % 1021,1 hPa 0,0 l/m 0,2 km/h (0 Bft) 0 min 0,0 km/h (0 Bft)
20.06.2009 12:54 21,8 C 15,2 C 2,6 UV-I 0,0 C 53 % 79 % 0 % 1021,1 hPa 0,0 l/m 0,2 km/h (0 Bft) 0 min 0,0 km/h (0 Bft)
20.06.2009 12:56 21,8 C 15,2 C 2,6 UV-I 0,0 C 53 % 79 % 0 % 1021,1 hPa 0,0 l/m 0,2 km/h (0 Bft) 0 min 4,8 km/h (1 Bft)
20.06.2009 12:58 21,8 C 15,2 C 3,8 UV-I 0,0 C 53 % 78 % 0 % 1021,1 hPa 0,0 l/m 0,5 km/h (0 Bft) 0 min 0,0 km/h (0 Bft)
20.06.2009 13:00 21,8 C 15,3 C 3,8 UV-I 0,0 C 53 % 79 % 0 % 1021,1 hPa 0,0 l/m 0,5 km/h (0 Bft) 0 min 5,8 km/h (2 Bft)
20.06.2009 13:02 21,8 C 15,5 C 6,0 UV-I 0,4 C 53 % 80 % 11 % 1021,1 hPa 0,0 l/m 0,7 km/h (0 Bft) 0 min 0,0 km/h (0 Bft)
20.06.2009 13:04 21,8 C 15,5 C 6,0 UV-I 1,5 C 53 % 80 % 43 % 1021,1 hPa 0,0 l/m 1,0 km/h (0 Bft) 0 min 0,0 km/h (0 Bft)
20.06.2009 13:06 21,8 C 15,6 C 6,0 UV-I 2,2 C 53 % 80 % 63 % 1021,1 hPa 0,0 l/m 1,0 km/h (0 Bft) 0 min 2,4 km/h (1 Bft)
20.06.2009 13:08 21,8 C 15,9 C 6,9 UV-I 2,8 C 53 % 79 % 80 % 1021,1 hPa 0,0 l/m 1,2 km/h (1 Bft) 0 min 4,8 km/h (1 Bft)
20.06.2009 13:10 21,8 C 16,1 C 6,9 UV-I 3,2 C 53 % 77 % 91 % 1021,1 hPa 0,0 l/m 1,4 km/h (1 Bft) 2 min 2,6 km/h (1 Bft)
20.06.2009 13:12 21,8 C 16,1 C 6,7 UV-I 3,5 C 53 % 77 % 100 % 1021,1 hPa 0,0 l/m 1,9 km/h (1 Bft) 2 min 6,5 km/h (2 Bft)
20.06.2009 13:14 21,9 C 16,2 C 6,7 UV-I 3,6 C 53 % 71 % 100 % 1021,1 hPa 0,0 l/m 3,4 km/h (1 Bft) 2 min 11,5 km/h (2 Bft)
20.06.2009 13:16 21,9 C 16,4 C 6,7 UV-I 3,5 C 53 % 70 % 100 % 1021,1 hPa 0,0 l/m 4,3 km/h (1 Bft) 2 min 11,3 km/h (2 Bft)
20.06.2009 13:18 21,9 C 16,5 C 6,7 UV-I 3,4 C 53 % 67 % 97 % 1021,1 hPa 0,0 l/m 5,8 km/h (2 Bft) 2 min 7,9 km/h (2 Bft)
20.06.2009 13:20 21,9 C 16,7 C 6,7 UV-I 3,3 C 53 % 68 % 94 % 1021,1 hPa 0,0 l/m 5,8 km/h (2 Bft) 2 min 4,6 km/h (1 Bft)
20.06.2009 13:22 21,9 C 16,7 C 6,7 UV-I 3,6 C 52 % 69 % 100 % 1021,1 hPa 0,0 l/m 5,8 km/h (2 Bft) 2 min 6,5 km/h (2 Bft)
20.06.2009 13:24 21,9 C 16,9 C 6,7 UV-I 3,7 C 52 % 65 % 100 % 1021,1 hPa 0,0 l/m 5,5 km/h (1 Bft) 2 min 6,3 km/h (2 Bft)
20.06.2009 13:26 21,9 C 16,9 C 6,7 UV-I 3,7 C 52 % 64 % 100 % 1021,1 hPa 0,0 l/m 5,5 km/h (1 Bft) 2 min 14,7 km/h (3 Bft)
20.06.2009 13:28 21,9 C 17,1 C 6,1 UV-I 3,6 C 52 % 63 % 100 % 1021,1 hPa 0,0 l/m 4,3 km/h (1 Bft) 2 min 6,0 km/h (2 Bft)
20.06.2009 13:30 21,9 C 17,1 C 6,1 UV-I 3,7 C 51 % 63 % 100 % 1021,1 hPa 0,0 l/m 4,3 km/h (1 Bft) 2 min 10,6 km/h (2 Bft)
20.06.2009 13:32 21,9 C 17,1 C 6,4 UV-I 3,8 C 51 % 61 % 100 % 1021,1 hPa 0,0 l/m 4,6 km/h (1 Bft) 2 min 6,3 km/h (2 Bft)
20.06.2009 13:34 21,9 C 17,3 C 6,4 UV-I 3,8 C 51 % 66 % 100 % 1021,1 hPa 0,0 l/m 4,1 km/h (1 Bft) 2 min 6,3 km/h (2 Bft)
20.06.2009 13:36 21,9 C 17,5 C 6,4 UV-I 3,8 C 51 % 61 % 100 % 1021,1 hPa 0,0 l/m 4,1 km/h (1 Bft) 2 min 4,8 km/h (1 Bft)
20.06.2009 13:38 21,9 C 17,5 C 6,5 UV-I 4,0 C 51 % 62 % 100 % 1020,9 hPa 0,0 l/m 4,1 km/h (1 Bft) 2 min 5,5 km/h (1 Bft)
20.06.2009 13:40 21,9 C 17,7 C 6,5 UV-I 3,9 C 51 % 62 % 100 % 1020,9 hPa 0,0 l/m 4,3 km/h (1 Bft) 2 min 10,1 km/h (2 Bft)
20.06.2009 13:42 21,9 C 17,7 C 7,1 UV-I 4,2 C 50 % 61 % 100 % 1020,9 hPa 0,0 l/m 4,3 km/h (1 Bft) 2 min 5,8 km/h (2 Bft)
20.06.2009 13:44 21,9 C 17,8 C 7,1 UV-I 4,3 C 50 % 61 % 100 % 1020,9 hPa 0,0 l/m 3,8 km/h (1 Bft) 2 min 3,4 km/h (1 Bft)
20.06.2009 13:46 21,9 C 18,0 C 7,1 UV-I 4,5 C 50 % 61 % 100 % 1020,9 hPa 0,0 l/m 3,4 km/h (1 Bft) 2 min 8,9 km/h (2 Bft)
20.06.2009 13:48 21,9 C 18,1 C 7,1 UV-I 4,7 C 50 % 59 % 100 % 1020,9 hPa 0,0 l/m 3,8 km/h (1 Bft) 2 min 12,8 km/h (3 Bft)
20.06.2009 13:50 21,9 C 18,4 C 7,1 UV-I 4,5 C 50 % 60 % 100 % 1020,9 hPa 0,0 l/m 4,3 km/h (1 Bft) 2 min 4,8 km/h (1 Bft)
20.06.2009 13:52 21,9 C 18,4 C 6,4 UV-I 4,7 C 50 % 60 % 100 % 1020,9 hPa 0,0 l/m 3,8 km/h (1 Bft) 2 min 6,5 km/h (2 Bft)
20.06.2009 13:54 21,8 C 18,4 C 6,4 UV-I 4,5 C 50 % 58 % 100 % 1020,9 hPa 0,0 l/m 3,8 km/h (1 Bft) 2 min 0,0 km/h (0 Bft)
20.06.2009 13:56 21,8 C 18,5 C 6,4 UV-I 4,2 C 50 % 60 % 100 % 1020,9 hPa 0,0 l/m 3,8 km/h (1 Bft) 2 min 0,0 km/h (0 Bft)
20.06.2009 13:58 21,9 C 18,5 C 3,7 UV-I 3,7 C 50 % 59 % 100 % 1020,7 hPa 0,0 l/m 2,9 km/h (1 Bft) 2 min 0,0 km/h (0 Bft)
20.06.2009 14:00 21,9 C 18,6 C 3,7 UV-I 3,2 C 50 % 57 % 91 % 1020,7 hPa 0,1 l/m 2,6 km/h (1 Bft) 2 min 10,1 km/h (2 Bft)
20.06.2009 14:02 21,8 C 18,7 C 3,8 UV-I 2,5 C 50 % 56 % 71 % 1020,7 hPa 0,0 l/m 3,1 km/h (1 Bft) 0 min 3,8 km/h (1 Bft)
20.06.2009 14:04 21,8 C 18,7 C 3,8 UV-I 2,4 C 50 % 55 % 69 % 1020,7 hPa 0,0 l/m 3,6 km/h (1 Bft) 0 min 9,1 km/h (2 Bft)
20.06.2009 14:06 21,9 C 18,8 C 3,8 UV-I 2,6 C 50 % 54 % 74 % 1020,7 hPa 0,0 l/m 4,1 km/h (1 Bft) 0 min 15,2 km/h (3 Bft)
20.06.2009 14:08 21,9 C 18,8 C 6,2 UV-I 3,1 C 50 % 54 % 89 % 1020,7 hPa 0,0 l/m 5,1 km/h (1 Bft) 2 min 3,1 km/h (1 Bft)
20.06.2009 14:10 21,9 C 18,9 C 6,2 UV-I 2,8 C 49 % 55 % 80 % 1020,7 hPa 0,0 l/m 5,3 km/h (1 Bft) 0 min 15,2 km/h (3 Bft)
20.06.2009 14:12 21,9 C 18,8 C 6,2 UV-I 2,7 C 49 % 52 % 77 % 1020,7 hPa 0,0 l/m 5,1 km/h (1 Bft) 0 min 5,5 km/h (1 Bft)
20.06.2009 14:14 21,9 C 19,1 C 6,2 UV-I 2,6 C 49 % 52 % 74 % 1020,7 hPa 0,0 l/m 4,8 km/h (1 Bft) 0 min 13,2 km/h (3 Bft)
20.06.2009 14:16 21,9 C 19,2 C 6,2 UV-I 3,2 C 49 % 53 % 91 % 1020,7 hPa 0,0 l/m 4,8 km/h (1 Bft) 2 min 4,6 km/h (1 Bft)
20.06.2009 14:18 21,9 C 19,3 C 7,4 UV-I 3,6 C 49 % 53 % 100 % 1020,6 hPa 0,0 l/m 3,8 km/h (1 Bft) 2 min 2,4 km/h (1 Bft)
20.06.2009 14:20 21,9 C 19,4 C 7,4 UV-I 4,2 C 49 % 52 % 100 % 1020,6 hPa 0,0 l/m 4,1 km/h (1 Bft) 2 min 9,6 km/h (2 Bft)
20.06.2009 14:22 21,9 C 19,7 C 7,5 UV-I 4,3 C 48 % 49 % 100 % 1020,6 hPa 0,0 l/m 4,3 km/h (1 Bft) 2 min 14,2 km/h (3 Bft)
20.06.2009 14:24 21,9 C 19,7 C 7,5 UV-I 4,5 C 48 % 48 % 100 % 1020,6 hPa 0,0 l/m 5,3 km/h (1 Bft) 2 min 24,3 km/h (4 Bft)
20.06.2009 14:26 22,0 C 19,8 C 7,5 UV-I 4,3 C 48 % 48 % 100 % 1020,6 hPa 0,0 l/m 6,0 km/h (2 Bft) 2 min 7,7 km/h (2 Bft)
20.06.2009 14:31 22,0 C 20,0 C 6,4 UV-I 4,1 C 47 % 49 % 100 % 1020,6 hPa 0,0 l/m 7,9 km/h (2 Bft) 2 min 7,2 km/h (2 Bft)
20.06.2009 14:32 22,0 C 20,0 C 6,4 UV-I 4,1 C 47 % 49 % 100 % 1020,6 hPa 0,0 l/m 7,9 km/h (2 Bft) 1 min 7,2 km/h (2 Bft)
20.06.2009 14:34 22,0 C 20,0 C 6,4 UV-I 4,0 C 47 % 47 % 100 % 1020,6 hPa 0,0 l/m 7,5 km/h (2 Bft) 2 min 9,9 km/h (2 Bft)
20.06.2009 14:36 22,0 C 20,0 C 6,4 UV-I 3,4 C 47 % 48 % 97 % 1020,6 hPa 0,0 l/m 6,5 km/h (2 Bft) 2 min 4,1 km/h (1 Bft)
20.06.2009 14:38 22,0 C 19,9 C 2,9 UV-I 2,7 C 47 % 46 % 77 % 1021,1 hPa 0,0 l/m 6,0 km/h (2 Bft) 0 min 3,8 km/h (1 Bft)
20.06.2009 14:40 22,0 C 19,9 C 2,9 UV-I 2,2 C 47 % 48 % 63 % 1021,1 hPa 0,0 l/m 5,8 km/h (2 Bft) 0 min 24,1 km/h (4 Bft)
20.06.2009 14:42 22,0 C 19,8 C 2,6 UV-I 1,6 C 47 % 47 % 46 % 1021,1 hPa 0,0 l/m 6,0 km/h (2 Bft) 0 min 10,6 km/h (2 Bft)
20.06.2009 14:44 22,1 C 19,7 C 2,6 UV-I 1,5 C 47 % 49 % 43 % 1021,1 hPa 0,0 l/m 5,5 km/h (1 Bft) 0 min 7,5 km/h (2 Bft)
20.06.2009 14:46 22,1 C 19,7 C 2,6 UV-I 1,4 C 46 % 49 % 40 % 1021,1 hPa 0,0 l/m 4,8 km/h (1 Bft) 0 min 4,3 km/h (1 Bft)
20.06.2009 14:48 22,1 C 19,7 C 2,4 UV-I 1,2 C 46 % 49 % 34 % 1021,1 hPa 0,0 l/m 4,8 km/h (1 Bft) 0 min 9,4 km/h (2 Bft)
20.06.2009 14:50 22,1 C 19,7 C 2,4 UV-I 1,0 C 46 % 48 % 29 % 1021,1 hPa 0,0 l/m 4,8 km/h (1 Bft) 0 min 4,6 km/h (1 Bft)
20.06.2009 14:52 22,1 C 19,7 C 2,7 UV-I 0,8 C 46 % 47 % 23 % 1021,1 hPa 0,0 l/m 4,6 km/h (1 Bft) 0 min 9,6 km/h (2 Bft)
20.06.2009 14:54 22,2 C 19,7 C 2,7 UV-I 0,6 C 46 % 49 % 17 % 1021,1 hPa 0,0 l/m 4,3 km/h (1 Bft) 0 min 11,5 km/h (2 Bft)
20.06.2009 14:56 22,2 C 19,7 C 2,7 UV-I 0,8 C 46 % 49 % 23 % 1021,1 hPa 0,0 l/m 5,8 km/h (2 Bft) 0 min 7,0 km/h (2 Bft)
20.06.2009 14:58 22,2 C 19,7 C 4,3 UV-I 1,1 C 46 % 49 % 31 % 1020,9 hPa 0,0 l/m 7,7 km/h (2 Bft) 0 min 8,9 km/h (2 Bft)
20.06.2009 15:00 22,2 C 19,7 C 4,3 UV-I 1,4 C 46 % 50 % 40 % 1020,9 hPa 0,0 l/m 7,2 km/h (2 Bft) 0 min 7,9 km/h (2 Bft)
20.06.2009 15:02 22,2 C 19,6 C 4,1 UV-I 1,7 C 46 % 50 % 49 % 1020,9 hPa 0,0 l/m 7,9 km/h (2 Bft) 0 min 19,0 km/h (3 Bft)
20.06.2009 15:04 22,2 C 19,6 C 4,1 UV-I 1,4 C 46 % 49 % 40 % 1020,9 hPa 0,0 l/m 8,7 km/h (2 Bft) 0 min 26,2 km/h (4 Bft)
20.06.2009 15:06 22,2 C 19,5 C 4,1 UV-I 1,2 C 46 % 50 % 34 % 1020,9 hPa 0,0 l/m 8,9 km/h (2 Bft) 0 min 6,3 km/h (2 Bft)
20.06.2009 15:08 22,2 C 19,5 C 4,1 UV-I 0,9 C 46 % 50 % 26 % 1020,9 hPa 0,0 l/m 7,2 km/h (2 Bft) 0 min 8,2 km/h (2 Bft)
20.06.2009 15:10 22,2 C 19,3 C 4,1 UV-I 1,1 C 46 % 49 % 31 % 1020,9 hPa 0,0 l/m 7,2 km/h (2 Bft) 0 min 13,0 km/h (3 Bft)
20.06.2009 15:12 22,2 C 19,4 C 4,8 UV-I 1,1 C 46 % 49 % 31 % 1020,9 hPa 0,0 l/m 7,2 km/h (2 Bft) 0 min 7,9 km/h (2 Bft)
20.06.2009 15:14 22,2 C 19,5 C 4,8 UV-I 1,3 C 46 % 49 % 37 % 1020,9 hPa 0,0 l/m 6,3 km/h (2 Bft) 0 min 4,1 km/h (1 Bft)
20.06.2009 15:16 22,2 C 19,5 C 4,8 UV-I 1,5 C 46 % 49 % 43 % 1020,9 hPa 0,0 l/m 5,8 km/h (2 Bft) 0 min 23,8 km/h (4 Bft)
20.06.2009 15:18 22,2 C 19,5 C 4,7 UV-I 1,6 C 46 % 48 % 46 % 1020,9 hPa 0,0 l/m 5,8 km/h (2 Bft) 0 min 9,1 km/h (2 Bft)
20.06.2009 15:20 22,3 C 19,5 C 4,7 UV-I 1,6 C 46 % 49 % 46 % 1020,9 hPa 0,0 l/m 4,8 km/h (1 Bft) 0 min 2,6 km/h (1 Bft)
20.06.2009 15:22 22,3 C 19,4 C 4,5 UV-I 1,8 C 46 % 50 % 51 % 1020,9 hPa 0,0 l/m 4,3 km/h (1 Bft) 0 min 6,5 km/h (2 Bft)
20.06.2009 15:24 22,3 C 19,5 C 4,5 UV-I 1,8 C 46 % 49 % 51 % 1020,9 hPa 0,0 l/m 4,8 km/h (1 Bft) 0 min 16,1 km/h (3 Bft)
20.06.2009 15:26 22,3 C 19,5 C 4,5 UV-I 2,0 C 46 % 49 % 57 % 1020,9 hPa 0,0 l/m 4,6 km/h (1 Bft) 0 min 2,4 km/h (1 Bft)
20.06.2009 15:28 22,3 C 19,5 C 5,4 UV-I 2,2 C 46 % 49 % 63 % 1020,9 hPa 0,0 l/m 4,6 km/h (1 Bft) 0 min 9,9 km/h (2 Bft)
20.06.2009 15:30 22,2 C 19,6 C 5,4 UV-I 2,4 C 46 % 49 % 69 % 1020,9 hPa 0,0 l/m 4,3 km/h (1 Bft) 0 min 6,7 km/h (2 Bft)
20.06.2009 15:32 22,2 C 19,7 C 5,9 UV-I 2,7 C 46 % 49 % 77 % 1020,9 hPa 0,0 l/m 5,1 km/h (1 Bft) 0 min 8,4 km/h (2 Bft)
20.06.2009 15:34 22,2 C 19,8 C 5,9 UV-I 2,9 C 46 % 50 % 83 % 1020,9 hPa 0,0 l/m 4,8 km/h (1 Bft) 2 min 3,8 km/h (1 Bft)
20.06.2009 15:36 22,4 C 19,8 C 5,9 UV-I 3,1 C 46 % 49 % 89 % 1020,9 hPa 0,0 l/m 4,6 km/h (1 Bft) 2 min 7,2 km/h (2 Bft)
20.06.2009 15:38 22,4 C 19,9 C 5,9 UV-I 3,4 C 46 % 48 % 97 % 1020,9 hPa 0,0 l/m 5,1 km/h (1 Bft) 2 min 15,2 km/h (3 Bft)
20.06.2009 15:40 22,4 C 19,9 C 5,9 UV-I 3,4 C 46 % 48 % 97 % 1020,9 hPa 0,0 l/m 4,8 km/h (1 Bft) 2 min 7,2 km/h (2 Bft)
20.06.2009 15:42 22,4 C 19,9 C 5,5 UV-I 3,5 C 46 % 48 % 100 % 1020,9 hPa 0,0 l/m 5,5 km/h (1 Bft) 2 min 3,1 km/h (1 Bft)
20.06.2009 15:44 22,4 C 19,9 C 5,5 UV-I 3,3 C 46 % 49 % 94 % 1020,9 hPa 0,0 l/m 4,8 km/h (1 Bft) 2 min 3,4 km/h (1 Bft)
20.06.2009 15:46 22,4 C 19,9 C 5,5 UV-I 3,0 C 46 % 47 % 86 % 1020,9 hPa 0,0 l/m 4,8 km/h (1 Bft) 2 min 3,1 km/h (1 Bft)
20.06.2009 15:48 22,4 C 19,8 C 3,8 UV-I 2,6 C 45 % 46 % 74 % 1020,9 hPa 0,0 l/m 5,3 km/h (1 Bft) 0 min 14,9 km/h (3 Bft)
20.06.2009 15:50 22,5 C 19,7 C 3,8 UV-I 2,3 C 45 % 47 % 66 % 1020,9 hPa 0,0 l/m 4,3 km/h (1 Bft) 0 min 4,1 km/h (1 Bft)
20.06.2009 15:52 22,5 C 19,7 C 3,6 UV-I 1,8 C 45 % 46 % 51 % 1020,9 hPa 0,0 l/m 4,1 km/h (1 Bft) 0 min 3,8 km/h (1 Bft)
20.06.2009 15:54 22,5 C 19,7 C 3,6 UV-I 1,5 C 45 % 47 % 43 % 1020,9 hPa 0,0 l/m 4,3 km/h (1 Bft) 0 min 3,6 km/h (1 Bft)
20.06.2009 15:56 22,5 C 19,6 C 3,6 UV-I 1,4 C 45 % 46 % 40 % 1020,9 hPa 0,0 l/m 4,3 km/h (1 Bft) 0 min 4,3 km/h (1 Bft)
20.06.2009 15:58 22,5 C 19,6 C 3,3 UV-I 1,2 C 45 % 47 % 34 % 1021,1 hPa 0,0 l/m 3,6 km/h (1 Bft) 0 min 3,4 km/h (1 Bft)
20.06.2009 16:00 22,5 C 19,6 C 3,3 UV-I 1,0 C 45 % 47 % 29 % 1021,1 hPa 0,0 l/m 3,6 km/h (1 Bft) 0 min 2,6 km/h (1 Bft)
20.06.2009 16:02 22,5 C 19,6 C 2,8 UV-I 0,9 C 45 % 47 % 26 % 1021,1 hPa 0,0 l/m 3,1 km/h (1 Bft) 0 min 6,7 km/h (2 Bft)
20.06.2009 16:04 22,5 C 19,6 C 2,8 UV-I 0,8 C 45 % 47 % 23 % 1021,1 hPa 0,0 l/m 2,4 km/h (1 Bft) 0 min 0,0 km/h (0 Bft)
20.06.2009 16:06 22,5 C 19,6 C 2,8 UV-I 0,8 C 44 % 46 % 23 % 1021,1 hPa 0,0 l/m 2,2 km/h (1 Bft) 0 min 0,0 km/h (0 Bft)
20.06.2009 16:08 22,5 C 19,5 C 2,4 UV-I 0,7 C 44 % 47 % 20 % 1021,1 hPa 0,0 l/m 2,6 km/h (1 Bft) 0 min 5,1 km/h (1 Bft)
20.06.2009 16:10 22,6 C 19,5 C 2,4 UV-I 0,6 C 44 % 46 % 17 % 1021,1 hPa 0,0 l/m 3,1 km/h (1 Bft) 0 min 15,4 km/h (3 Bft)
20.06.2009 16:12 22,6 C 19,5 C 2,4 UV-I 0,5 C 44 % 47 % 14 % 1021,1 hPa 0,0 l/m 3,4 km/h (1 Bft) 0 min 5,1 km/h (1 Bft)
20.06.2009 16:14 22,6 C 19,5 C 2,4 UV-I 0,4 C 44 % 47 % 11 % 1021,1 hPa 0,0 l/m 3,4 km/h (1 Bft) 0 min 3,4 km/h (1 Bft)
20.06.2009 16:16 22,6 C 19,5 C 2,4 UV-I 0,3 C 44 % 47 % 9 % 1021,1 hPa 0,0 l/m 3,1 km/h (1 Bft) 0 min 0,0 km/h (0 Bft)
20.06.2009 16:18 22,6 C 19,5 C 2,9 UV-I 0,4 C 44 % 46 % 11 % 1021,1 hPa 0,0 l/m 4,1 km/h (1 Bft) 0 min 7,5 km/h (2 Bft)
20.06.2009 16:20 22,6 C 19,3 C 2,9 UV-I 0,6 C 44 % 46 % 17 % 1021,1 hPa 0,0 l/m 4,3 km/h (1 Bft) 0 min 7,9 km/h (2 Bft)
20.06.2009 16:22 22,6 C 19,3 C 4,2 UV-I 0,8 C 44 % 47 % 23 % 1021,1 hPa 0,0 l/m 4,1 km/h (1 Bft) 0 min 7,5 km/h (2 Bft)
20.06.2009 16:24 22,6 C 19,4 C 4,2 UV-I 1,0 C 44 % 47 % 29 % 1021,1 hPa 0,0 l/m 4,1 km/h (1 Bft) 0 min 3,1 km/h (1 Bft)
20.06.2009 16:26 22,6 C 19,4 C 4,2 UV-I 1,7 C 44 % 48 % 49 % 1021,1 hPa 0,0 l/m 4,1 km/h (1 Bft) 0 min 7,7 km/h (2 Bft)
20.06.2009 16:28 22,6 C 19,5 C 4,9 UV-I 2,0 C 44 % 48 % 57 % 1021,1 hPa 0,0 l/m 3,8 km/h (1 Bft) 0 min 0,0 km/h (0 Bft)
20.06.2009 16:30 22,6 C 19,5 C 4,9 UV-I 2,1 C 44 % 48 % 60 % 1021,1 hPa 0,0 l/m 3,6 km/h (1 Bft) 0 min 7,9 km/h (2 Bft)
20.06.2009 16:32 22,6 C 19,6 C 3,2 UV-I 1,9 C 44 % 48 % 54 % 1021,1 hPa 0,0 l/m 3,6 km/h (1 Bft) 0 min 6,0 km/h (2 Bft)
20.06.2009 16:34 22,6 C 19,7 C 3,2 UV-I 1,5 C 44 % 48 % 43 % 1021,1 hPa 0,0 l/m 3,6 km/h (1 Bft) 0 min 9,4 km/h (2 Bft)
20.06.2009 16:36 22,6 C 19,6 C 3,2 UV-I 1,3 C 44 % 48 % 37 % 1021,1 hPa 0,0 l/m 3,8 km/h (1 Bft) 0 min 7,2 km/h (2 Bft)
20.06.2009 16:38 22,6 C 19,5 C 2,1 UV-I 1,1 C 44 % 48 % 31 % 1021,0 hPa 0,0 l/m 4,3 km/h (1 Bft) 0 min 10,8 km/h (2 Bft)
20.06.2009 16:40 22,6 C 19,5 C 2,1 UV-I 0,8 C 44 % 48 % 23 % 1021,0 hPa 0,0 l/m 4,8 km/h (1 Bft) 0 min 9,6 km/h (2 Bft)
20.06.2009 16:42 22,6 C 19,5 C 1,4 UV-I 0,4 C 44 % 48 % 11 % 1021,0 hPa 0,0 l/m 5,3 km/h (1 Bft) 0 min 7,7 km/h (2 Bft)
20.06.2009 16:44 22,6 C 19,2 C 1,4 UV-I 0,4 C 44 % 48 % 11 % 1021,0 hPa 0,0 l/m 6,0 km/h (2 Bft) 0 min 6,3 km/h (2 Bft)
20.06.2009 16:46 22,6 C 19,2 C 1,4 UV-I 0,1 C 44 % 49 % 3 % 1021,0 hPa 0,0 l/m 6,0 km/h (2 Bft) 0 min 9,4 km/h (2 Bft)
20.06.2009 16:48 22,6 C 19,1 C 1,2 UV-I 0,0 C 44 % 50 % 0 % 1021,0 hPa 0,0 l/m 5,8 km/h (2 Bft) 0 min 6,3 km/h (2 Bft)
20.06.2009 16:50 22,6 C 19,1 C 1,2 UV-I 0,0 C 44 % 50 % 0 % 1021,0 hPa 0,0 l/m 5,1 km/h (1 Bft) 0 min 3,4 km/h (1 Bft)
20.06.2009 16:52 22,6 C 19,0 C 1,0 UV-I 0,0 C 44 % 51 % 0 % 1021,0 hPa 0,0 l/m 4,1 km/h (1 Bft) 0 min 0,0 km/h (0 Bft)
20.06.2009 16:54 22,6 C 19,1 C 1,0 UV-I 0,0 C 44 % 51 % 0 % 1021,0 hPa 0,0 l/m 3,1 km/h (1 Bft) 0 min 2,9 km/h (1 Bft)
20.06.2009 16:56 22,6 C 19,1 C 1,0 UV-I 0,0 C 44 % 51 % 0 % 1021,0 hPa 0,0 l/m 2,6 km/h (1 Bft) 0 min 14,2 km/h (3 Bft)
20.06.2009 16:58 22,6 C 19,1 C 0,8 UV-I 0,0 C 44 % 50 % 0 % 1021,2 hPa 0,0 l/m 3,4 km/h (1 Bft) 0 min 4,8 km/h (1 Bft)
20.06.2009 17:00 22,6 C 18,8 C 0,8 UV-I 0,0 C 44 % 50 % 0 % 1021,2 hPa 0,0 l/m 4,3 km/h (1 Bft) 0 min 14,9 km/h (3 Bft)
20.06.2009 17:02 22,5 C 18,8 C 0,8 UV-I 0,0 C 44 % 50 % 0 % 1021,2 hPa 0,0 l/m 5,8 km/h (2 Bft) 0 min 12,5 km/h (3 Bft)
20.06.2009 17:04 22,6 C 18,7 C 0,8 UV-I 0,0 C 44 % 50 % 0 % 1021,2 hPa 0,0 l/m 7,0 km/h (2 Bft) 0 min 11,5 km/h (2 Bft)
20.06.2009 17:06 22,5 C 18,5 C 0,8 UV-I 0,0 C 44 % 51 % 0 % 1021,2 hPa 0,0 l/m 7,7 km/h (2 Bft) 0 min 9,1 km/h (2 Bft)
20.06.2009 17:08 22,5 C 18,4 C 1,2 UV-I 0,0 C 44 % 51 % 0 % 1021,2 hPa 0,0 l/m 7,2 km/h (2 Bft) 0 min 16,4 km/h (3 Bft)
20.06.2009 17:10 22,5 C 18,5 C 1,2 UV-I 0,0 C 44 % 51 % 0 % 1021,2 hPa 0,0 l/m 7,0 km/h (2 Bft) 0 min 15,6 km/h (3 Bft)
20.06.2009 17:12 22,5 C 18,5 C 1,0 UV-I 0,0 C 44 % 51 % 0 % 1021,2 hPa 0,0 l/m 5,5 km/h (1 Bft) 0 min 7,7 km/h (2 Bft)
20.06.2009 17:14 22,5 C 18,3 C 1,0 UV-I 0,0 C 44 % 51 % 0 % 1021,2 hPa 0,0 l/m 5,5 km/h (1 Bft) 0 min 16,8 km/h (3 Bft)
20.06.2009 17:16 22,5 C 18,3 C 1,0 UV-I 0,0 C 44 % 52 % 0 % 1021,2 hPa 0,0 l/m 5,8 km/h (2 Bft) 0 min 8,4 km/h (2 Bft)
20.06.2009 17:18 22,5 C 18,3 C 1,0 UV-I 0,0 C 44 % 52 % 0 % 1021,2 hPa 0,0 l/m 5,8 km/h (2 Bft) 0 min 3,1 km/h (1 Bft)
20.06.2009 17:20 22,5 C 18,2 C 1,0 UV-I 0,0 C 44 % 52 % 0 % 1021,2 hPa 0,0 l/m 5,8 km/h (2 Bft) 0 min 6,0 km/h (2 Bft)
20.06.2009 17:22 22,4 C 18,1 C 0,6 UV-I 0,0 C 44 % 52 % 0 % 1021,2 hPa 0,0 l/m 4,8 km/h (1 Bft) 0 min 6,5 km/h (2 Bft)
20.06.2009 17:24 22,4 C 18,0 C 0,6 UV-I 0,0 C 44 % 53 % 0 % 1021,2 hPa 0,0 l/m 4,6 km/h (1 Bft) 0 min 0,0 km/h (0 Bft)
20.06.2009 17:26 22,4 C 18,0 C 0,6 UV-I 0,0 C 44 % 53 % 0 % 1021,2 hPa 0,0 l/m 3,6 km/h (1 Bft) 0 min 4,6 km/h (1 Bft)
20.06.2009 17:28 22,4 C 18,0 C 0,4 UV-I 0,0 C 44 % 53 % 0 % 1021,2 hPa 0,0 l/m 3,4 km/h (1 Bft) 0 min 7,9 km/h (2 Bft)
20.06.2009 17:30 22,4 C 18,0 C 0,4 UV-I 0,0 C 44 % 53 % 0 % 1021,2 hPa 0,0 l/m 3,1 km/h (1 Bft) 0 min 8,7 km/h (2 Bft)
20.06.2009 17:32 22,4 C 17,9 C 0,3 UV-I 0,0 C 44 % 54 % 0 % 1021,2 hPa 0,0 l/m 3,1 km/h (1 Bft) 0 min 7,5 km/h (2 Bft)
20.06.2009 17:34 22,4 C 17,9 C 0,3 UV-I 0,0 C 44 % 53 % 0 % 1021,2 hPa 0,0 l/m 3,6 km/h (1 Bft) 0 min 16,8 km/h (3 Bft)
20.06.2009 17:36 22,4 C 17,7 C 0,3 UV-I 0,0 C 44 % 53 % 0 % 1021,2 hPa 0,0 l/m 4,3 km/h (1 Bft) 0 min 6,7 km/h (2 Bft)
20.06.2009 17:38 22,2 C 17,7 C 0,4 UV-I 0,0 C 44 % 54 % 0 % 1021,3 hPa 0,0 l/m 4,1 km/h (1 Bft) 0 min 0,0 km/h (0 Bft)
20.06.2009 17:40 22,3 C 17,7 C 0,4 UV-I 0,0 C 44 % 54 % 0 % 1021,3 hPa 0,0 l/m 3,6 km/h (1 Bft) 0 min 4,8 km/h (1 Bft)
20.06.2009 17:42 22,3 C 17,6 C 0,6 UV-I 0,0 C 44 % 53 % 0 % 1021,3 hPa 0,0 l/m 4,1 km/h (1 Bft) 0 min 12,8 km/h (3 Bft)
20.06.2009 17:44 22,3 C 17,6 C 0,6 UV-I 0,0 C 44 % 54 % 0 % 1021,3 hPa 0,0 l/m 4,3 km/h (1 Bft) 0 min 9,6 km/h (2 Bft)
20.06.2009 17:46 22,2 C 17,6 C 0,6 UV-I 0,0 C 44 % 53 % 0 % 1021,3 hPa 0,0 l/m 4,3 km/h (1 Bft) 0 min 7,2 km/h (2 Bft)
20.06.2009 17:48 22,2 C 17,5 C 0,8 UV-I 0,0 C 44 % 53 % 0 % 1021,3 hPa 0,0 l/m 4,3 km/h (1 Bft) 0 min 9,4 km/h (2 Bft)
20.06.2009 17:50 22,2 C 17,5 C 0,8 UV-I 0,0 C 44 % 53 % 0 % 1021,3 hPa 0,0 l/m 4,8 km/h (1 Bft) 0 min 3,1 km/h (1 Bft)
20.06.2009 17:52 22,2 C 17,4 C 0,8 UV-I 0,0 C 44 % 53 % 0 % 1021,3 hPa 0,0 l/m 5,5 km/h (1 Bft) 0 min 27,4 km/h (4 Bft)
20.06.2009 17:54 22,2 C 17,5 C 0,8 UV-I 0,0 C 44 % 53 % 0 % 1021,3 hPa 0,0 l/m 6,3 km/h (2 Bft) 0 min 27,4 km/h (4 Bft)
20.06.2009 17:56 22,1 C 17,3 C 0,8 UV-I 0,0 C 44 % 53 % 0 % 1021,3 hPa 0,0 l/m 5,8 km/h (2 Bft) 0 min 14,9 km/h (3 Bft)
20.06.2009 17:58 22,1 C 17,3 C 0,7 UV-I 0,0 C 43 % 53 % 0 % 1021,1 hPa 0,0 l/m 6,5 km/h (2 Bft) 0 min 5,5 km/h (1 Bft)
20.06.2009 18:00 22,1 C 17,3 C 0,7 UV-I 0,0 C 43 % 53 % 0 % 1021,1 hPa 0,0 l/m 7,5 km/h (2 Bft) 0 min 18,0 km/h (3 Bft)
20.06.2009 18:02 22,0 C 17,2 C 0,5 UV-I 0,0 C 43 % 53 % 0 % 1021,1 hPa 0,0 l/m 7,7 km/h (2 Bft) 0 min 4,3 km/h (1 Bft)
20.06.2009 18:04 22,0 C 17,2 C 0,5 UV-I 0,0 C 43 % 53 % 0 % 1021,1 hPa 0,0 l/m 6,5 km/h (2 Bft) 0 min 8,7 km/h (2 Bft)
20.06.2009 18:06 22,0 C 17,2 C 0,5 UV-I 0,0 C 43 % 54 % 0 % 1021,1 hPa 0,0 l/m 6,0 km/h (2 Bft) 0 min 6,7 km/h (2 Bft)
20.06.2009 18:08 22,0 C 17,2 C 0,5 UV-I 0,0 C 43 % 54 % 0 % 1021,1 hPa 0,0 l/m 5,5 km/h (1 Bft) 0 min 6,7 km/h (2 Bft)
20.06.2009 18:10 22,0 C 17,1 C 0,5 UV-I 0,0 C 43 % 54 % 0 % 1021,1 hPa 0,0 l/m 5,1 km/h (1 Bft) 0 min 8,4 km/h (2 Bft)
20.06.2009 18:12 22,0 C 17,1 C 0,5 UV-I 0,0 C 43 % 54 % 0 % 1021,1 hPa 0,0 l/m 4,1 km/h (1 Bft) 0 min 10,1 km/h (2 Bft)
20.06.2009 18:14 21,9 C 17,1 C 0,5 UV-I 0,0 C 43 % 54 % 0 % 1021,1 hPa 0,0 l/m 4,3 km/h (1 Bft) 0 min 2,9 km/h (1 Bft)
20.06.2009 18:16 21,9 C 17,0 C 0,5 UV-I 0,0 C 43 % 54 % 0 % 1021,1 hPa 0,0 l/m 4,6 km/h (1 Bft) 0 min 4,8 km/h (1 Bft)
20.06.2009 18:18 21,9 C 16,9 C 0,5 UV-I 0,0 C 43 % 54 % 0 % 1021,4 hPa 0,0 l/m 4,8 km/h (1 Bft) 0 min 7,0 km/h (2 Bft)
20.06.2009 18:20 21,9 C 16,9 C 0,5 UV-I 0,0 C 43 % 54 % 0 % 1021,4 hPa 0,0 l/m 5,1 km/h (1 Bft) 0 min 5,8 km/h (2 Bft)
20.06.2009 18:22 21,8 C 16,8 C 0,5 UV-I 0,0 C 43 % 55 % 0 % 1021,4 hPa 0,0 l/m 4,8 km/h (1 Bft) 0 min 6,0 km/h (2 Bft)
20.06.2009 18:24 21,8 C 16,9 C 0,5 UV-I 0,0 C 44 % 56 % 0 % 1021,4 hPa 0,0 l/m 4,1 km/h (1 Bft) 0 min 0,0 km/h (0 Bft)
20.06.2009 18:26 21,8 C 16,8 C 0,5 UV-I 0,0 C 44 % 56 % 0 % 1021,4 hPa 0,0 l/m 3,8 km/h (1 Bft) 0 min 6,5 km/h (2 Bft)
20.06.2009 18:28 21,8 C 16,8 C 0,6 UV-I 0,0 C 44 % 56 % 0 % 1021,4 hPa 0,0 l/m 3,8 km/h (1 Bft) 0 min 14,4 km/h (3 Bft)
20.06.2009 18:30 21,8 C 16,7 C 0,6 UV-I 0,0 C 44 % 56 % 0 % 1021,4 hPa 0,0 l/m 3,8 km/h (1 Bft) 0 min 6,5 km/h (2 Bft)
20.06.2009 18:32 21,8 C 16,7 C 0,6 UV-I 0,0 C 45 % 56 % 0 % 1021,4 hPa 0,0 l/m 4,1 km/h (1 Bft) 0 min 9,4 km/h (2 Bft)
20.06.2009 18:34 21,8 C 16,6 C 0,6 UV-I 0,0 C 44 % 57 % 0 % 1021,4 hPa 0,0 l/m 4,8 km/h (1 Bft) 0 min 13,2 km/h (3 Bft)
20.06.2009 18:36 21,8 C 16,5 C 0,6 UV-I 0,0 C 44 % 57 % 0 % 1021,4 hPa 0,0 l/m 5,1 km/h (1 Bft) 0 min 14,0 km/h (3 Bft)
20.06.2009 18:38 21,7 C 16,5 C 0,6 UV-I 0,0 C 44 % 57 % 0 % 1021,4 hPa 0,0 l/m 5,3 km/h (1 Bft) 0 min 4,3 km/h (1 Bft)
20.06.2009 18:40 21,7 C 16,5 C 0,6 UV-I 0,0 C 44 % 57 % 0 % 1021,4 hPa 0,0 l/m 5,1 km/h (1 Bft) 0 min 5,1 km/h (1 Bft)
20.06.2009 18:42 21,7 C 16,4 C 0,7 UV-I 0,0 C 44 % 57 % 0 % 1021,4 hPa 0,0 l/m 5,3 km/h (1 Bft) 0 min 6,7 km/h (2 Bft)
20.06.2009 18:44 21,7 C 16,5 C 0,7 UV-I 0,0 C 44 % 57 % 0 % 1021,4 hPa 0,0 l/m 5,3 km/h (1 Bft) 0 min 14,4 km/h (3 Bft)
20.06.2009 18:46 21,7 C 16,5 C 0,7 UV-I 0,0 C 44 % 57 % 0 % 1021,4 hPa 0,0 l/m 5,1 km/h (1 Bft) 0 min 5,1 km/h (1 Bft)
20.06.2009 18:48 21,6 C 16,4 C 0,8 UV-I 0,0 C 44 % 58 % 0 % 1021,4 hPa 0,0 l/m 3,8 km/h (1 Bft) 0 min 5,1 km/h (1 Bft)
20.06.2009 18:50 21,6 C 16,5 C 0,8 UV-I 0,0 C 44 % 58 % 0 % 1021,4 hPa 0,0 l/m 3,1 km/h (1 Bft) 0 min 0,0 km/h (0 Bft)
20.06.2009 18:52 21,6 C 16,3 C 0,6 UV-I 0,0 C 44 % 58 % 0 % 1021,4 hPa 0,0 l/m 3,1 km/h (1 Bft) 0 min 2,4 km/h (1 Bft)
20.06.2009 18:54 21,6 C 16,4 C 0,6 UV-I 0,0 C 44 % 58 % 0 % 1021,4 hPa 0,0 l/m 2,4 km/h (1 Bft) 0 min 0,0 km/h (0 Bft)
20.06.2009 18:56 21,6 C 16,3 C 0,6 UV-I 0,0 C 45 % 58 % 0 % 1021,4 hPa 0,0 l/m 1,7 km/h (1 Bft) 0 min 2,9 km/h (1 Bft)
20.06.2009 18:58 21,6 C 16,4 C 0,7 UV-I 0,0 C 45 % 58 % 0 % 1021,4 hPa 0,0 l/m 1,9 km/h (1 Bft) 0 min 5,1 km/h (1 Bft)
20.06.2009 19:00 21,6 C 16,3 C 0,7 UV-I 0,0 C 45 % 58 % 0 % 1021,4 hPa 0,0 l/m 2,6 km/h (1 Bft) 0 min 6,3 km/h (2 Bft)
20.06.2009 19:02 21,6 C 16,3 C 0,8 UV-I 0,0 C 45 % 58 % 0 % 1021,4 hPa 0,0 l/m 3,4 km/h (1 Bft) 0 min 3,6 km/h (1 Bft)
20.06.2009 19:04 21,6 C 16,3 C 0,8 UV-I 0,0 C 45 % 58 % 0 % 1021,4 hPa 0,0 l/m 2,6 km/h (1 Bft) 0 min 0,0 km/h (0 Bft)
20.06.2009 19:06 21,6 C 16,2 C 0,8 UV-I 0,0 C 45 % 59 % 0 % 1021,4 hPa 0,0 l/m 3,4 km/h (1 Bft) 0 min 10,3 km/h (2 Bft)
20.06.2009 19:08 21,6 C 16,3 C 0,8 UV-I 0,0 C 45 % 58 % 0 % 1021,4 hPa 0,0 l/m 3,6 km/h (1 Bft) 0 min 6,7 km/h (2 Bft)
20.06.2009 19:10 21,5 C 16,3 C 0,8 UV-I 0,0 C 46 % 58 % 0 % 1021,4 hPa 0,0 l/m 3,4 km/h (1 Bft) 0 min 0,0 km/h (0 Bft)
20.06.2009 19:12 21,5 C 16,2 C 0,8 UV-I 0,0 C 46 % 59 % 0 % 1021,4 hPa 0,0 l/m 2,2 km/h (1 Bft) 0 min 3,4 km/h (1 Bft)
20.06.2009 19:14 21,5 C 16,3 C 0,8 UV-I 0,0 C 46 % 59 % 0 % 1021,4 hPa 0,0 l/m 2,2 km/h (1 Bft) 0 min 4,1 km/h (1 Bft)
20.06.2009 19:16 21,5 C 16,3 C 0,8 UV-I 0,0 C 46 % 59 % 0 % 1021,4 hPa 0,0 l/m 2,6 km/h (1 Bft) 0 min 7,9 km/h (2 Bft)
20.06.2009 19:18 21,5 C 16,3 C 0,7 UV-I 0,0 C 46 % 59 % 0 % 1021,0 hPa 0,0 l/m 2,6 km/h (1 Bft) 0 min 4,3 km/h (1 Bft)
20.06.2009 19:20 21,5 C 16,2 C 0,7 UV-I 0,0 C 46 % 59 % 0 % 1021,0 hPa 0,0 l/m 2,2 km/h (1 Bft) 0 min 0,0 km/h (0 Bft)
20.06.2009 19:22 21,5 C 16,2 C 0,6 UV-I 0,0 C 46 % 60 % 0 % 1021,0 hPa 0,0 l/m 1,9 km/h (1 Bft) 0 min 0,0 km/h (0 Bft)
20.06.2009 19:24 21,5 C 16,3 C 0,6 UV-I 0,0 C 46 % 60 % 0 % 1021,0 hPa 0,0 l/m 1,7 km/h (1 Bft) 0 min 3,4 km/h (1 Bft)
20.06.2009 19:26 21,5 C 16,3 C 0,6 UV-I 0,0 C 46 % 60 % 0 % 1021,0 hPa 0,0 l/m 1,2 km/h (1 Bft) 0 min 0,0 km/h (0 Bft)
20.06.2009 19:28 21,5 C 16,3 C 0,6 UV-I 0,0 C 46 % 60 % 0 % 1021,0 hPa 0,0 l/m 0,7 km/h (0 Bft) 0 min 2,9 km/h (1 Bft)
20.06.2009 19:30 21,4 C 16,2 C 0,6 UV-I 0,0 C 46 % 59 % 0 % 1021,0 hPa 0,0 l/m 1,0 km/h (0 Bft) 0 min 5,3 km/h (1 Bft)
20.06.2009 19:32 21,4 C 16,3 C 0,6 UV-I 0,0 C 46 % 60 % 0 % 1021,0 hPa 0,0 l/m 1,0 km/h (0 Bft) 0 min 3,8 km/h (1 Bft)
20.06.2009 19:34 21,4 C 16,3 C 0,6 UV-I 0,0 C 46 % 60 % 0 % 1021,0 hPa 0,0 l/m 1,7 km/h (1 Bft) 0 min 4,6 km/h (1 Bft)
20.06.2009 19:36 21,4 C 16,3 C 0,6 UV-I 0,0 C 46 % 59 % 0 % 1021,0 hPa 0,0 l/m 1,9 km/h (1 Bft) 0 min 0,0 km/h (0 Bft)
20.06.2009 19:38 21,4 C 16,1 C 0,6 UV-I 0,0 C 46 % 59 % 0 % 1021,4 hPa 0,0 l/m 2,9 km/h (1 Bft) 0 min 8,4 km/h (2 Bft)
20.06.2009 19:40 21,4 C 16,1 C 0,6 UV-I 0,0 C 46 % 59 % 0 % 1021,4 hPa 0,0 l/m 2,6 km/h (1 Bft) 0 min 0,0 km/h (0 Bft)
20.06.2009 19:42 21,4 C 16,1 C 0,6 UV-I 0,0 C 46 % 60 % 0 % 1021,4 hPa 0,0 l/m 2,6 km/h (1 Bft) 0 min 7,9 km/h (2 Bft)
20.06.2009 19:44 21,4 C 16,1 C 0,6 UV-I 0,0 C 46 % 59 % 0 % 1021,4 hPa 0,0 l/m 2,6 km/h (1 Bft) 0 min 2,9 km/h (1 Bft)
20.06.2009 19:46 21,4 C 16,1 C 0,6 UV-I 0,0 C 45 % 59 % 0 % 1021,4 hPa 0,0 l/m 2,2 km/h (1 Bft) 0 min 3,1 km/h (1 Bft)
20.06.2009 19:48 21,4 C 16,0 C 0,5 UV-I 0,0 C 46 % 59 % 0 % 1021,4 hPa 0,0 l/m 1,7 km/h (1 Bft) 0 min 0,0 km/h (0 Bft)
20.06.2009 19:50 21,4 C 16,1 C 0,5 UV-I 0,0 C 46 % 59 % 0 % 1021,4 hPa 0,0 l/m 1,4 km/h (1 Bft) 0 min 9,4 km/h (2 Bft)
20.06.2009 19:52 21,2 C 16,0 C 0,5 UV-I 0,0 C 46 % 59 % 0 % 1021,4 hPa 0,0 l/m 2,2 km/h (1 Bft) 0 min 2,4 km/h (1 Bft)
20.06.2009 19:54 21,2 C 16,1 C 0,5 UV-I 0,0 C 46 % 59 % 0 % 1021,4 hPa 0,0 l/m 1,9 km/h (1 Bft) 0 min 4,8 km/h (1 Bft)
20.06.2009 19:56 21,2 C 16,0 C 0,5 UV-I 0,0 C 46 % 59 % 0 % 1021,4 hPa 0,0 l/m 2,6 km/h (1 Bft) 0 min 11,1 km/h (2 Bft)
20.06.2009 19:58 21,2 C 16,0 C 0,5 UV-I 0,0 C 46 % 59 % 0 % 1021,9 hPa 0,0 l/m 3,1 km/h (1 Bft) 0 min 4,3 km/h (1 Bft)
20.06.2009 20:00 21,2 C 16,0 C 0,5 UV-I 0,0 C 46 % 58 % 0 % 1021,9 hPa 0,0 l/m 3,4 km/h (1 Bft) 0 min 0,0 km/h (0 Bft)
20.06.2009 20:02 21,2 C 16,0 C 0,3 UV-I 0,0 C 46 % 58 % 0 % 1021,9 hPa 0,0 l/m 3,4 km/h (1 Bft) 0 min 7,2 km/h (2 Bft)
20.06.2009 20:04 21,3 C 16,0 C 0,3 UV-I 0,0 C 46 % 58 % 0 % 1021,9 hPa 0,0 l/m 3,4 km/h (1 Bft) 0 min 0,0 km/h (0 Bft)
20.06.2009 20:06 21,3 C 15,9 C 0,3 UV-I 0,0 C 46 % 58 % 0 % 1021,9 hPa 0,0 l/m 4,1 km/h (1 Bft) 0 min 5,3 km/h (1 Bft)
20.06.2009 20:08 21,3 C 15,9 C 0,4 UV-I 0,0 C 46 % 58 % 0 % 1021,9 hPa 0,0 l/m 3,1 km/h (1 Bft) 0 min 2,6 km/h (1 Bft)
20.06.2009 20:10 21,3 C 15,9 C 0,4 UV-I 0,0 C 46 % 58 % 0 % 1021,9 hPa 0,0 l/m 3,4 km/h (1 Bft) 0 min 5,5 km/h (1 Bft)
20.06.2009 20:12 21,3 C 15,9 C 0,4 UV-I 0,0 C 45 % 59 % 0 % 1021,9 hPa 0,0 l/m 3,1 km/h (1 Bft) 0 min 0,0 km/h (0 Bft)
20.06.2009 20:14 21,2 C 15,9 C 0,4 UV-I 0,0 C 46 % 59 % 0 % 1021,9 hPa 0,0 l/m 2,9 km/h (1 Bft) 0 min 4,8 km/h (1 Bft)
20.06.2009 20:16 21,2 C 15,9 C 0,4 UV-I 0,0 C 45 % 59 % 0 % 1021,9 hPa 0,0 l/m 2,6 km/h (1 Bft) 0 min 3,4 km/h (1 Bft)
20.06.2009 20:18 21,2 C 15,9 C 0,5 UV-I 0,0 C 45 % 59 % 0 % 1021,9 hPa 0,0 l/m 2,4 km/h (1 Bft) 0 min 0,0 km/h (0 Bft)
20.06.2009 20:20 21,2 C 15,8 C 0,5 UV-I 0,0 C 46 % 59 % 0 % 1021,9 hPa 0,0 l/m 2,4 km/h (1 Bft) 0 min 0,0 km/h (0 Bft)
20.06.2009 20:22 21,2 C 15,9 C 0,4 UV-I 0,0 C 46 % 59 % 0 % 1021,9 hPa 0,0 l/m 1,9 km/h (1 Bft) 0 min 6,0 km/h (2 Bft)
20.06.2009 20:24 21,2 C 15,9 C 0,4 UV-I 0,0 C 45 % 59 % 0 % 1021,9 hPa 0,0 l/m 2,2 km/h (1 Bft) 0 min 4,1 km/h (1 Bft)
20.06.2009 20:26 21,2 C 15,9 C 0,4 UV-I 0,0 C 46 % 59 % 0 % 1021,9 hPa 0,0 l/m 2,4 km/h (1 Bft) 0 min 3,8 km/h (1 Bft)
20.06.2009 20:28 21,2 C 15,7 C 0,3 UV-I 0,0 C 46 % 59 % 0 % 1021,9 hPa 0,0 l/m 2,2 km/h (1 Bft) 0 min 5,3 km/h (1 Bft)
20.06.2009 20:30 21,2 C 15,7 C 0,3 UV-I 0,0 C 46 % 59 % 0 % 1021,9 hPa 0,0 l/m 2,2 km/h (1 Bft) 0 min 0,0 km/h (0 Bft)
20.06.2009 20:32 21,2 C 15,7 C 0,2 UV-I 0,0 C 46 % 59 % 0 % 1021,9 hPa 0,0 l/m 2,6 km/h (1 Bft) 0 min 8,4 km/h (2 Bft)
20.06.2009 20:34 21,2 C 15,7 C 0,2 UV-I 0,0 C 46 % 59 % 0 % 1021,9 hPa 0,0 l/m 2,9 km/h (1 Bft) 0 min 3,8 km/h (1 Bft)
20.06.2009 20:36 21,2 C 15,7 C 0,2 UV-I 0,0 C 46 % 60 % 0 % 1021,9 hPa 0,0 l/m 2,6 km/h (1 Bft) 0 min 5,1 km/h (1 Bft)
20.06.2009 20:38 21,2 C 15,7 C 0,1 UV-I 0,0 C 46 % 60 % 0 % 1021,8 hPa 0,0 l/m 2,4 km/h (1 Bft) 0 min 2,4 km/h (1 Bft)
20.06.2009 20:40 21,1 C 15,6 C 0,1 UV-I 0,0 C 46 % 61 % 0 % 1021,8 hPa 0,0 l/m 2,4 km/h (1 Bft) 0 min 9,4 km/h (2 Bft)
20.06.2009 20:42 21,2 C 15,7 C 0,0 UV-I 0,0 C 46 % 60 % 0 % 1021,8 hPa 0,0 l/m 2,9 km/h (1 Bft) 0 min 0,0 km/h (0 Bft)
20.06.2009 20:44 21,1 C 15,6 C 0,0 UV-I 0,0 C 46 % 61 % 0 % 1021,8 hPa 0,0 l/m 1,9 km/h (1 Bft) 0 min 2,9 km/h (1 Bft)
20.06.2009 20:46 21,1 C 15,6 C 0,0 UV-I 0,0 C 46 % 61 % 0 % 1021,8 hPa 0,0 l/m 1,9 km/h (1 Bft) 0 min 2,4 km/h (1 Bft)
20.06.2009 20:48 21,1 C 15,5 C 0,0 UV-I 0,0 C 46 % 61 % 0 % 1021,8 hPa 0,0 l/m 1,7 km/h (1 Bft) 0 min 2,9 km/h (1 Bft)
20.06.2009 20:50 21,1 C 15,5 C 0,0 UV-I 0,0 C 46 % 61 % 0 % 1021,8 hPa 0,0 l/m 1,9 km/h (1 Bft) 0 min 0,0 km/h (0 Bft)
20.06.2009 20:52 21,1 C 15,5 C 0,1 UV-I 0,0 C 46 % 61 % 0 % 1021,8 hPa 0,0 l/m 1,2 km/h (1 Bft) 0 min 0,0 km/h (0 Bft)
20.06.2009 20:54 21,0 C 15,5 C 0,1 UV-I 0,0 C 46 % 61 % 0 % 1021,8 hPa 0,0 l/m 1,4 km/h (1 Bft) 0 min 2,6 km/h (1 Bft)
20.06.2009 20:56 21,0 C 15,4 C 0,1 UV-I 0,0 C 46 % 61 % 0 % 1021,8 hPa 0,0 l/m 0,7 km/h (0 Bft) 0 min 0,0 km/h (0 Bft)
20.06.2009 20:58 21,1 C 15,5 C 0,0 UV-I 0,0 C 46 % 62 % 0 % 1021,4 hPa 0,0 l/m 0,7 km/h (0 Bft) 0 min 0,0 km/h (0 Bft)
20.06.2009 21:00 21,0 C 15,5 C 0,0 UV-I 0,0 C 46 % 62 % 0 % 1021,4 hPa 0,0 l/m 0,5 km/h (0 Bft) 0 min 0,0 km/h (0 Bft)
20.06.2009 21:02 21,0 C 15,4 C 0,0 UV-I 0,0 C 46 % 62 % 0 % 1021,4 hPa 0,0 l/m 0,7 km/h (0 Bft) 0 min 7,2 km/h (2 Bft)
20.06.2009 21:04 21,0 C 15,3 C 0,0 UV-I 0,0 C 46 % 62 % 0 % 1021,4 hPa 0,0 l/m 0,7 km/h (0 Bft) 0 min 0,0 km/h (0 Bft)
20.06.2009 21:06 21,0 C 15,3 C 0,0 UV-I 0,0 C 46 % 63 % 0 % 1021,4 hPa 0,0 l/m 1,0 km/h (0 Bft) 0 min 4,3 km/h (1 Bft)
20.06.2009 21:08 21,0 C 15,3 C 0,0 UV-I 0,0 C 46 % 63 % 0 % 1021,4 hPa 0,0 l/m 1,2 km/h (1 Bft) 0 min 0,0 km/h (0 Bft)
20.06.2009 21:10 21,0 C 15,3 C 0,0 UV-I 0,0 C 46 % 63 % 0 % 1021,4 hPa 0,0 l/m 1,4 km/h (1 Bft) 0 min 3,4 km/h (1 Bft)
20.06.2009 21:12 21,0 C 15,2 C 0,0 UV-I 0,0 C 46 % 63 % 0 % 1021,4 hPa 0,0 l/m 1,4 km/h (1 Bft) 0 min 3,6 km/h (1 Bft)
20.06.2009 21:14 21,0 C 15,3 C 0,0 UV-I 0,0 C 46 % 63 % 0 % 1021,4 hPa 0,0 l/m 1,2 km/h (1 Bft) 0 min 5,8 km/h (2 Bft)
20.06.2009 21:16 21,0 C 15,3 C 0,0 UV-I 0,0 C 46 % 63 % 0 % 1021,4 hPa 0,0 l/m 1,4 km/h (1 Bft) 0 min 0,0 km/h (0 Bft)
20.06.2009 21:18 20,9 C 15,3 C 0,0 UV-I 0,0 C 47 % 64 % 0 % 1021,7 hPa 0,0 l/m 1,0 km/h (0 Bft) 0 min 2,4 km/h (1 Bft)
20.06.2009 21:20 20,9 C 15,3 C 0,0 UV-I 0,0 C 47 % 64 % 0 % 1021,7 hPa 0,0 l/m 1,2 km/h (1 Bft) 0 min 0,0 km/h (0 Bft)
20.06.2009 21:22 20,9 C 15,2 C 0,0 UV-I 0,0 C 47 % 64 % 0 % 1021,7 hPa 0,0 l/m 0,7 km/h (0 Bft) 0 min 0,0 km/h (0 Bft)
20.06.2009 21:24 20,9 C 15,1 C 0,0 UV-I 0,0 C 47 % 64 % 0 % 1021,7 hPa 0,0 l/m 1,0 km/h (0 Bft) 0 min 0,0 km/h (0 Bft)
20.06.2009 21:26 20,9 C 15,1 C 0,0 UV-I 0,0 C 47 % 64 % 0 % 1021,7 hPa 0,0 l/m 1,0 km/h (0 Bft) 0 min 3,6 km/h (1 Bft)
20.06.2009 21:28 20,8 C 15,1 C 0,0 UV-I 0,0 C 47 % 64 % 0 % 1021,7 hPa 0,0 l/m 1,0 km/h (0 Bft) 0 min 5,1 km/h (1 Bft)
20.06.2009 21:30 20,9 C 15,1 C 0,0 UV-I 0,0 C 47 % 64 % 0 % 1021,7 hPa 0,0 l/m 0,7 km/h (0 Bft) 0 min 0,0 km/h (0 Bft)
20.06.2009 21:32 20,8 C 15,1 C 0,0 UV-I 0,0 C 47 % 65 % 0 % 1021,7 hPa 0,0 l/m 0,7 km/h (0 Bft) 0 min 0,0 km/h (0 Bft)
20.06.2009 21:34 20,8 C 15,1 C 0,0 UV-I 0,0 C 48 % 65 % 0 % 1021,7 hPa 0,0 l/m 0,7 km/h (0 Bft) 0 min 2,4 km/h (1 Bft)
20.06.2009 21:36 20,8 C 15,1 C 0,0 UV-I 0,0 C 48 % 65 % 0 % 1021,7 hPa 0,0 l/m 0,5 km/h (0 Bft) 0 min 2,6 km/h (1 Bft)
20.06.2009 21:38 20,8 C 15,0 C 0,0 UV-I 0,0 C 47 % 65 % 0 % 1021,8 hPa 0,0 l/m 0,7 km/h (0 Bft) 0 min 3,6 km/h (1 Bft)
20.06.2009 21:40 20,8 C 15,1 C 0,0 UV-I 0,0 C 47 % 65 % 0 % 1021,8 hPa 0,0 l/m 1,0 km/h (0 Bft) 0 min 0,0 km/h (0 Bft)
20.06.2009 21:42 20,8 C 15,1 C 0,0 UV-I 0,0 C 47 % 65 % 0 % 1021,8 hPa 0,0 l/m 1,0 km/h (0 Bft) 0 min 4,3 km/h (1 Bft)
20.06.2009 21:44 20,8 C 15,0 C 0,0 UV-I 0,0 C 47 % 65 % 0 % 1021,8 hPa 0,0 l/m 1,4 km/h (1 Bft) 0 min 4,3 km/h (1 Bft)
20.06.2009 21:46 20,8 C 15,0 C 0,0 UV-I 0,0 C 47 % 65 % 0 % 1021,8 hPa 0,0 l/m 1,7 km/h (1 Bft) 0 min 3,6 km/h (1 Bft)
20.06.2009 21:48 20,8 C 15,0 C 0,0 UV-I 0,0 C 47 % 65 % 0 % 1021,8 hPa 0,0 l/m 1,7 km/h (1 Bft) 0 min 0,0 km/h (0 Bft)
20.06.2009 21:50 20,8 C 14,9 C 0,0 UV-I 0,0 C 47 % 65 % 0 % 1021,8 hPa 0,0 l/m 1,9 km/h (1 Bft) 0 min 4,3 km/h (1 Bft)
20.06.2009 21:52 20,8 C 14,9 C 0,0 UV-I 0,0 C 47 % 65 % 0 % 1021,8 hPa 0,0 l/m 1,9 km/h (1 Bft) 0 min 0,0 km/h (0 Bft)
20.06.2009 21:54 20,7 C 14,9 C 0,0 UV-I 0,0 C 47 % 66 % 0 % 1021,8 hPa 0,0 l/m 1,4 km/h (1 Bft) 0 min 0,0 km/h (0 Bft)
20.06.2009 21:56 20,7 C 14,9 C 0,0 UV-I 0,0 C 47 % 66 % 0 % 1021,8 hPa 0,0 l/m 1,4 km/h (1 Bft) 0 min 4,6 km/h (1 Bft)
20.06.2009 21:58 20,7 C 14,8 C 0,0 UV-I 0,0 C 48 % 66 % 0 % 1022,0 hPa 0,0 l/m 1,0 km/h (0 Bft) 0 min 0,0 km/h (0 Bft)
20.06.2009 22:00 20,7 C 14,8 C 0,0 UV-I 0,0 C 48 % 66 % 0 % 1022,0 hPa 0,0 l/m 0,5 km/h (0 Bft) 0 min 0,0 km/h (0 Bft)
20.06.2009 22:02 20,7 C 14,8 C 0,0 UV-I 0,0 C 48 % 66 % 0 % 1022,0 hPa 0,0 l/m 1,0 km/h (0 Bft) 0 min 4,8 km/h (1 Bft)
20.06.2009 22:04 20,7 C 14,9 C 0,0 UV-I 0,0 C 48 % 66 % 0 % 1022,0 hPa 0,0 l/m 1,0 km/h (0 Bft) 0 min 0,0 km/h (0 Bft)
20.06.2009 22:06 20,7 C 14,9 C 0,0 UV-I 0,0 C 48 % 66 % 0 % 1022,0 hPa 0,0 l/m 1,0 km/h (0 Bft) 0 min 0,0 km/h (0 Bft)
20.06.2009 22:08 20,7 C 14,9 C 0,0 UV-I 0,0 C 48 % 66 % 0 % 1022,0 hPa 0,0 l/m 1,2 km/h (1 Bft) 0 min 0,0 km/h (0 Bft)
20.06.2009 22:10 20,6 C 14,9 C 0,0 UV-I 0,0 C 48 % 66 % 0 % 1022,0 hPa 0,0 l/m 1,2 km/h (1 Bft) 0 min 4,6 km/h (1 Bft)
20.06.2009 22:12 20,6 C 14,8 C 0,0 UV-I 0,0 C 48 % 67 % 0 % 1022,0 hPa 0,0 l/m 1,4 km/h (1 Bft) 0 min 0,0 km/h (0 Bft)
20.06.2009 22:14 20,6 C 14,8 C 0,0 UV-I 0,0 C 48 % 67 % 0 % 1022,0 hPa 0,0 l/m 1,2 km/h (1 Bft) 0 min 2,6 km/h (1 Bft)
20.06.2009 22:16 20,6 C 14,8 C 0,0 UV-I 0,0 C 48 % 67 % 0 % 1022,0 hPa 0,0 l/m 1,4 km/h (1 Bft) 0 min 3,6 km/h (1 Bft)
20.06.2009 22:18 20,6 C 14,7 C 0,0 UV-I 0,0 C 48 % 67 % 0 % 1022,2 hPa 0,0 l/m 1,4 km/h (1 Bft) 0 min 0,0 km/h (0 Bft)
20.06.2009 22:20 20,6 C 14,8 C 0,0 UV-I 0,0 C 48 % 67 % 0 % 1022,2 hPa 0,0 l/m 1,4 km/h (1 Bft) 0 min 0,0 km/h (0 Bft)
20.06.2009 22:22 20,6 C 14,7 C 0,0 UV-I 0,0 C 48 % 67 % 0 % 1022,2 hPa 0,0 l/m 1,0 km/h (0 Bft) 0 min 0,0 km/h (0 Bft)
20.06.2009 22:24 20,6 C 14,7 C 0,0 UV-I 0,0 C 48 % 67 % 0 % 1022,2 hPa 0,0 l/m 0,7 km/h (0 Bft) 0 min 0,0 km/h (0 Bft)
20.06.2009 22:26 20,6 C 14,7 C 0,0 UV-I 0,0 C 48 % 67 % 0 % 1022,2 hPa 0,0 l/m 0,7 km/h (0 Bft) 0 min 0,0 km/h (0 Bft)
20.06.2009 22:28 20,6 C 14,7 C 0,0 UV-I 0,0 C 48 % 67 % 0 % 1022,2 hPa 0,0 l/m 0,2 km/h (0 Bft) 0 min 0,0 km/h (0 Bft)
20.06.2009 22:30 20,6 C 14,6 C 0,0 UV-I 0,0 C 48 % 67 % 0 % 1022,2 hPa 0,0 l/m 0,2 km/h (0 Bft) 0 min 0,0 km/h (0 Bft)
20.06.2009 22:32 20,6 C 14,7 C 0,0 UV-I 0,0 C 48 % 68 % 0 % 1022,2 hPa 0,0 l/m 0,2 km/h (0 Bft) 0 min 0,0 km/h (0 Bft)
20.06.2009 22:34 20,6 C 14,6 C 0,0 UV-I 0,0 C 48 % 68 % 0 % 1022,2 hPa 0,0 l/m 0,2 km/h (0 Bft) 0 min 0,0 km/h (0 Bft)
20.06.2009 22:36 20,5 C 14,7 C 0,0 UV-I 0,0 C 48 % 68 % 0 % 1022,2 hPa 0,0 l/m 0,2 km/h (0 Bft) 0 min 0,0 km/h (0 Bft)
20.06.2009 22:38 20,5 C 14,7 C 0,0 UV-I 0,0 C 49 % 68 % 0 % 1022,2 hPa 0,0 l/m 0,2 km/h (0 Bft) 0 min 0,0 km/h (0 Bft)
20.06.2009 22:40 20,5 C 14,7 C 0,0 UV-I 0,0 C 48 % 68 % 0 % 1022,2 hPa 0,0 l/m 0,0 km/h (0 Bft) 0 min 0,0 km/h (0 Bft)
20.06.2009 22:42 20,5 C 14,7 C 0,0 UV-I 0,0 C 49 % 68 % 0 % 1022,2 hPa 0,0 l/m 0,0 km/h (0 Bft) 0 min 0,0 km/h (0 Bft)
20.06.2009 22:44 20,5 C 14,6 C 0,0 UV-I 0,0 C 49 % 68 % 0 % 1022,2 hPa 0,0 l/m 0,0 km/h (0 Bft) 0 min 0,0 km/h (0 Bft)
20.06.2009 22:46 20,5 C 14,6 C 0,0 UV-I 0,0 C 49 % 68 % 0 % 1022,2 hPa 0,0 l/m 0,0 km/h (0 Bft) 0 min 0,0 km/h (0 Bft)
20.06.2009 22:48 20,5 C 14,5 C 0,0 UV-I 0,0 C 49 % 68 % 0 % 1022,2 hPa 0,0 l/m 0,2 km/h (0 Bft) 0 min 0,0 km/h (0 Bft)
20.06.2009 22:50 20,5 C 14,5 C 0,0 UV-I 0,0 C 49 % 69 % 0 % 1022,2 hPa 0,0 l/m 0,2 km/h (0 Bft) 0 min 0,0 km/h (0 Bft)
20.06.2009 22:52 20,5 C 14,5 C 0,0 UV-I 0,0 C 49 % 69 % 0 % 1022,2 hPa 0,0 l/m 0,2 km/h (0 Bft) 0 min 0,0 km/h (0 Bft)
20.06.2009 22:54 20,5 C 14,5 C 0,0 UV-I 0,0 C 49 % 69 % 0 % 1022,2 hPa 0,0 l/m 0,2 km/h (0 Bft) 0 min 0,0 km/h (0 Bft)
20.06.2009 22:56 20,4 C 14,5 C 0,0 UV-I 0,0 C 49 % 69 % 0 % 1022,2 hPa 0,0 l/m 0,5 km/h (0 Bft) 0 min 0,0 km/h (0 Bft)
20.06.2009 22:58 20,4 C 14,5 C 0,0 UV-I 0,0 C 49 % 69 % 0 % 1022,6 hPa 0,0 l/m 0,5 km/h (0 Bft) 0 min 2,6 km/h (1 Bft)
20.06.2009 23:00 20,4 C 14,4 C 0,0 UV-I 0,0 C 49 % 69 % 0 % 1022,6 hPa 0,0 l/m 0,2 km/h (0 Bft) 0 min 0,0 km/h (0 Bft)
20.06.2009 23:02 20,5 C 14,4 C 0,0 UV-I 0,0 C 49 % 69 % 0 % 1022,6 hPa 0,0 l/m 0,2 km/h (0 Bft) 0 min 0,0 km/h (0 Bft)
20.06.2009 23:04 20,4 C 14,4 C 0,0 UV-I 0,0 C 49 % 69 % 0 % 1022,6 hPa 0,0 l/m 0,2 km/h (0 Bft) 0 min 0,0 km/h (0 Bft)
20.06.2009 23:06 20,4 C 14,4 C 0,0 UV-I 0,0 C 49 % 69 % 0 % 1022,6 hPa 0,0 l/m 0,0 km/h (0 Bft) 0 min 0,0 km/h (0 Bft)
20.06.2009 23:08 20,4 C 14,5 C 0,0 UV-I 0,0 C 49 % 69 % 0 % 1022,6 hPa 0,0 l/m 0,0 km/h (0 Bft) 0 min 0,0 km/h (0 Bft)
20.06.2009 23:10 20,4 C 14,4 C 0,0 UV-I 0,0 C 49 % 70 % 0 % 1022,6 hPa 0,0 l/m 0,0 km/h (0 Bft) 0 min 0,0 km/h (0 Bft)
20.06.2009 23:12 20,4 C 14,4 C 0,0 UV-I 0,0 C 49 % 70 % 0 % 1022,6 hPa 0,0 l/m 0,0 km/h (0 Bft) 0 min 0,0 km/h (0 Bft)
20.06.2009 23:14 20,4 C 14,4 C 0,0 UV-I 0,0 C 49 % 70 % 0 % 1022,6 hPa 0,0 l/m 0,0 km/h (0 Bft) 0 min 0,0 km/h (0 Bft)
20.06.2009 23:16 20,4 C 14,3 C 0,0 UV-I 0,0 C 49 % 70 % 0 % 1022,6 hPa 0,0 l/m 0,0 km/h (0 Bft) 0 min 0,0 km/h (0 Bft)
20.06.2009 23:18 20,4 C 14,2 C 0,0 UV-I 0,0 C 49 % 70 % 0 % 1022,1 hPa 0,0 l/m 0,0 km/h (0 Bft) 0 min 0,0 km/h (0 Bft)
20.06.2009 23:20 20,4 C 14,2 C 0,0 UV-I 0,0 C 49 % 70 % 0 % 1022,1 hPa 0,0 l/m 0,0 km/h (0 Bft) 0 min 0,0 km/h (0 Bft)
20.06.2009 23:22 20,4 C 14,3 C 0,0 UV-I 0,0 C 49 % 70 % 0 % 1022,1 hPa 0,0 l/m 0,0 km/h (0 Bft) 0 min 0,0 km/h (0 Bft)
20.06.2009 23:24 20,4 C 14,3 C 0,0 UV-I 0,0 C 49 % 70 % 0 % 1022,1 hPa 0,0 l/m 0,0 km/h (0 Bft) 0 min 0,0 km/h (0 Bft)
20.06.2009 23:26 20,4 C 14,2 C 0,0 UV-I 0,0 C 50 % 70 % 0 % 1022,1 hPa 0,0 l/m 0,0 km/h (0 Bft) 0 min 0,0 km/h (0 Bft)
20.06.2009 23:28 20,4 C 14,1 C 0,0 UV-I 0,0 C 49 % 71 % 0 % 1022,1 hPa 0,0 l/m 0,0 km/h (0 Bft) 0 min 0,0 km/h (0 Bft)
20.06.2009 23:30 20,4 C 14,1 C 0,0 UV-I 0,0 C 50 % 71 % 0 % 1022,1 hPa 0,0 l/m 0,0 km/h (0 Bft) 0 min 0,0 km/h (0 Bft)
20.06.2009 23:32 20,4 C 14,0 C 0,0 UV-I 0,0 C 50 % 71 % 0 % 1022,1 hPa 0,0 l/m 0,0 km/h (0 Bft) 0 min 0,0 km/h (0 Bft)
20.06.2009 23:34 20,4 C 14,0 C 0,0 UV-I 0,0 C 50 % 71 % 0 % 1022,1 hPa 0,0 l/m 0,0 km/h (0 Bft) 0 min 0,0 km/h (0 Bft)
20.06.2009 23:36 20,4 C 14,1 C 0,0 UV-I 0,0 C 50 % 71 % 0 % 1022,1 hPa 0,0 l/m 0,0 km/h (0 Bft) 0 min 0,0 km/h (0 Bft)
20.06.2009 23:38 20,4 C 14,0 C 0,0 UV-I 0,0 C 50 % 71 % 0 % 1022,1 hPa 0,0 l/m 0,0 km/h (0 Bft) 0 min 0,0 km/h (0 Bft)
20.06.2009 23:40 20,2 C 14,0 C 0,0 UV-I 0,0 C 50 % 71 % 0 % 1022,1 hPa 0,0 l/m 0,0 km/h (0 Bft) 0 min 0,0 km/h (0 Bft)
20.06.2009 23:42 20,2 C 13,9 C 0,0 UV-I 0,0 C 50 % 71 % 0 % 1022,1 hPa 0,0 l/m 0,0 km/h (0 Bft) 0 min 0,0 km/h (0 Bft)
20.06.2009 23:44 20,2 C 13,9 C 0,0 UV-I 0,0 C 50 % 71 % 0 % 1022,1 hPa 0,0 l/m 0,0 km/h (0 Bft) 0 min 0,0 km/h (0 Bft)
20.06.2009 23:46 20,3 C 13,8 C 0,0 UV-I 0,0 C 50 % 71 % 0 % 1022,1 hPa 0,0 l/m 0,0 km/h (0 Bft) 0 min 0,0 km/h (0 Bft)
20.06.2009 23:48 20,3 C 13,9 C 0,0 UV-I 0,0 C 50 % 72 % 0 % 1022,1 hPa 0,0 l/m 0,0 km/h (0 Bft) 0 min 0,0 km/h (0 Bft)
20.06.2009 23:50 20,3 C 13,9 C 0,0 UV-I 0,0 C 50 % 72 % 0 % 1022,1 hPa 0,0 l/m 0,0 km/h (0 Bft) 0 min 0,0 km/h (0 Bft)
20.06.2009 23:52 20,3 C 13,7 C 0,0 UV-I 0,0 C 50 % 72 % 0 % 1022,1 hPa 0,0 l/m 0,0 km/h (0 Bft) 0 min 0,0 km/h (0 Bft)
20.06.2009 23:54 20,3 C 13,7 C 0,0 UV-I 0,0 C 50 % 72 % 0 % 1022,1 hPa 0,0 l/m 0,0 km/h (0 Bft) 0 min 0,0 km/h (0 Bft)
20.06.2009 23:56 20,3 C 13,7 C 0,0 UV-I 0,0 C 50 % 72 % 0 % 1022,1 hPa 0,0 l/m 0,0 km/h (0 Bft) 0 min 0,0 km/h (0 Bft)
20.06.2009 23:58 20,3 C 13,7 C 0,0 UV-I 0,0 C 50 % 72 % 0 % 1022,2 hPa 0,0 l/m 0,0 km/h (0 Bft) 0 min 0,0 km/h (0 Bft)
_ Min-Zeit 06:00 01:24 00:00 00:00 17:58 14:38 00:00 05:58 - 00:00 - 00:00
Minimum _ 19,6 C 11,8 C 0,0 UV-I 0,0 C 43 % 46 % 0 % 1019,6 hPa - 0,0 km/h (0 Bft) - 0,0 km/h (0 Bft)
_ Max-Zeit 16:10 14:31 14:22 10:38 12:54 07:59 10:16 22:58 12:16 15:06 10:14 17:52
Maximum _ 22,6 C 20,0 C 7,5 UV-I 5,0 C 53 % 80 % 100 % 1022,6 hPa 1,6 l/m 8,9 km/h
W-NW (2 Bft)
2 min 27,4 km/h
W (4 Bft)
Durchschnitt _ 21,1 C 15,3 C 1,4 UV-I 0,7 C 48 % 66 % 19 % 1021,1 hPa #1,7 l/m 2,1 km/h (1 Bft) #2:04 h 3,5 km/h (1 Bft)
© 2012 W. Hausmann